Time,TemperatureF,DewpointF,PressureIn,WindDirection,WindDirectionDegrees,WindSpeedMPH,WindSpeedGustMPH,Humidity,HourlyPrecipIn,Conditions,Clouds,dailyrainin,SoftwareType,DateUTC
2013-03-23 00:00:00,69.5,67.7,29.95,SE,145,0.0,0.0,94,0.00,,,0.00,Wunderground v.1.15,2013-03-23 04:00:00,
2013-03-23 00:05:00,69.1,67.3,29.95,SE,145,0.0,0.0,94,0.00,,,0.00,Wunderground v.1.15,2013-03-23 04:05:00,
2013-03-23 00:06:00,69.0,67.2,29.95,SE,145,0.0,0.0,94,0.00,,,0.00,Wunderground v.1.15,2013-03-23 04:06:00,
2013-03-23 00:07:00,69.0,67.2,29.95,SE,145,0.0,0.0,94,0.00,,,0.00,Wunderground v.1.15,2013-03-23 04:07:00,
2013-03-23 00:10:00,68.9,67.1,29.95,SE,145,0.0,0.0,94,0.00,,,0.00,Wunderground v.1.15,2013-03-23 04:10:00,
2013-03-23 00:11:00,68.9,67.1,29.95,SE,145,0.0,0.0,94,0.00,,,0.00,Wunderground v.1.15,2013-03-23 04:11:00,
2013-03-23 00:12:00,68.9,67.1,29.95,SE,145,0.0,0.0,94,0.00,,,0.00,Wunderground v.1.15,2013-03-23 04:12:00,
2013-03-23 00:15:00,68.9,67.4,29.95,SE,145,0.0,0.0,95,0.00,,,0.00,Wunderground v.1.15,2013-03-23 04:15:00,
2013-03-23 00:17:00,69.0,67.5,29.95,SE,145,0.0,0.0,95,0.00,,,0.00,Wunderground v.1.15,2013-03-23 04:17:00,
2013-03-23 00:19:00,69.0,67.5,29.95,SE,145,0.0,0.0,95,0.00,,,0.00,Wunderground v.1.15,2013-03-23 04:19:00,
2013-03-23 00:20:00,69.1,67.6,29.95,SE,145,0.0,0.0,95,0.00,,,0.00,Wunderground v.1.15,2013-03-23 04:20:00,
2013-03-23 00:25:00,69.3,67.8,29.95,SE,145,0.0,0.0,95,0.00,,,0.00,Wunderground v.1.15,2013-03-23 04:25:00,
2013-03-23 00:26:00,69.4,67.9,29.95,SE,145,0.0,0.0,95,0.00,,,0.00,Wunderground v.1.15,2013-03-23 04:26:00,
2013-03-23 00:31:00,69.7,68.2,29.94,SE,145,0.0,0.0,95,0.00,,,0.00,Wunderground v.1.15,2013-03-23 04:31:00,
2013-03-23 00:32:00,69.8,68.3,29.94,SE,145,0.0,0.0,95,0.00,,,0.00,Wunderground v.1.15,2013-03-23 04:32:00,
2013-03-23 00:33:00,69.8,68.3,29.94,SE,145,0.0,0.0,95,0.00,,,0.00,Wunderground v.1.15,2013-03-23 04:33:00,
2013-03-23 00:35:00,69.8,68.3,29.94,SE,145,0.0,0.0,95,0.00,,,0.00,Wunderground v.1.15,2013-03-23 04:35:00,
2013-03-23 00:39:00,69.9,68.4,29.94,SE,145,0.0,0.0,95,0.00,,,0.00,Wunderground v.1.15,2013-03-23 04:39:00,
2013-03-23 00:40:00,69.9,68.4,29.94,SE,145,0.0,0.0,95,0.00,,,0.00,Wunderground v.1.15,2013-03-23 04:40:00,
2013-03-23 00:41:00,69.9,68.4,29.95,SE,145,0.0,0.0,95,0.00,,,0.00,Wunderground v.1.15,2013-03-23 04:41:00,
2013-03-23 00:42:00,70.0,68.5,29.95,SE,145,0.0,0.0,95,0.00,,,0.00,Wunderground v.1.15,2013-03-23 04:42:00,
2013-03-23 00:47:00,70.1,68.6,29.94,SE,145,0.0,0.0,95,0.00,,,0.00,Wunderground v.1.15,2013-03-23 04:47:00,
2013-03-23 00:48:00,70.1,68.6,29.94,SE,145,0.0,0.0,95,0.00,,,0.00,Wunderground v.1.15,2013-03-23 04:48:00,
2013-03-23 00:49:00,70.1,68.6,29.94,SE,145,0.0,0.0,95,0.00,,,0.00,Wunderground v.1.15,2013-03-23 04:49:00,
2013-03-23 00:54:00,70.3,69.1,29.93,SE,145,0.0,0.0,96,0.00,,,0.00,Wunderground v.1.15,2013-03-23 04:54:00,
2013-03-23 00:55:00,70.4,69.2,29.94,SE,145,0.0,0.0,96,0.00,,,0.00,Wunderground v.1.15,2013-03-23 04:55:00,
2013-03-23 00:56:00,70.4,69.2,29.94,SE,145,0.0,0.0,96,0.00,,,0.00,Wunderground v.1.15,2013-03-23 04:56:00,
2013-03-23 00:57:00,70.5,69.3,29.93,SE,145,0.0,0.0,96,0.00,,,0.00,Wunderground v.1.15,2013-03-23 04:57:00,
2013-03-23 01:00:00,70.6,69.4,29.93,SE,145,0.0,0.0,96,0.00,,,0.00,Wunderground v.1.15,2013-03-23 05:00:00,
2013-03-23 01:01:00,70.6,69.4,29.93,SE,145,1.0,1.0,96,0.00,,,0.00,Wunderground v.1.15,2013-03-23 05:01:00,
2013-03-23 01:02:00,70.6,69.4,29.93,SE,145,1.0,1.0,96,0.00,,,0.00,Wunderground v.1.15,2013-03-23 05:02:00,
2013-03-23 01:05:00,70.6,69.1,29.93,SE,146,0.0,1.0,95,0.00,,,0.00,Wunderground v.1.15,2013-03-23 05:05:00,
2013-03-23 01:07:00,70.7,69.5,29.93,SE,146,1.0,1.0,96,0.00,,,0.00,Wunderground v.1.15,2013-03-23 05:07:00,
2013-03-23 01:08:00,70.6,69.1,29.93,SE,146,0.0,1.0,95,0.00,,,0.00,Wunderground v.1.15,2013-03-23 05:08:00,
2013-03-23 01:10:00,70.6,69.1,29.93,SE,146,0.0,0.0,95,0.00,,,0.00,Wunderground v.1.15,2013-03-23 05:10:00,
2013-03-23 01:13:00,70.7,69.5,29.93,SE,146,0.0,0.0,96,0.00,,,0.00,Wunderground v.1.15,2013-03-23 05:13:00,
2013-03-23 01:14:00,70.7,69.5,29.93,SSE,157,1.0,1.0,96,0.00,,,0.00,Wunderground v.1.15,2013-03-23 05:14:00,
2013-03-23 01:15:00,70.8,69.6,29.93,SSE,157,0.0,1.0,96,0.00,,,0.00,Wunderground v.1.15,2013-03-23 05:15:00,
2013-03-23 01:18:00,70.9,69.7,29.93,SSE,161,0.0,3.0,96,0.00,,,0.00,Wunderground v.1.15,2013-03-23 05:18:00,
2013-03-23 01:19:00,71.0,69.8,29.93,SSE,161,1.0,3.0,96,0.00,,,0.00,Wunderground v.1.15,2013-03-23 05:19:00,
2013-03-23 01:21:00,71.1,69.9,29.93,SSE,161,0.0,1.0,96,0.00,,,0.00,Wunderground v.1.15,2013-03-23 05:21:00,
2013-03-23 01:24:00,71.2,70.0,29.93,SSE,161,2.0,2.0,96,0.00,,,0.00,Wunderground v.1.15,2013-03-23 05:24:00,
2013-03-23 01:29:00,71.5,70.3,29.93,SSE,159,0.0,3.0,96,0.00,,,0.00,Wunderground v.1.15,2013-03-23 05:29:00,
2013-03-23 01:30:00,71.5,70.3,29.93,SSE,159,2.0,2.0,96,0.00,,,0.00,Wunderground v.1.15,2013-03-23 05:30:00,
2013-03-23 01:31:00,71.5,70.3,29.93,SSE,159,0.0,2.0,96,0.00,,,0.00,Wunderground v.1.15,2013-03-23 05:31:00,
2013-03-23 01:32:00,71.5,70.3,29.93,SSE,159,1.0,2.0,96,0.00,,,0.00,Wunderground v.1.15,2013-03-23 05:32:00,
2013-03-23 01:36:00,71.6,70.4,29.93,SSE,159,0.0,2.0,96,0.00,,,0.00,Wunderground v.1.15,2013-03-23 05:36:00,
2013-03-23 01:37:00,71.6,70.4,29.93,SSE,159,0.0,2.0,96,0.00,,,0.00,Wunderground v.1.15,2013-03-23 05:37:00,
2013-03-23 01:38:00,71.7,70.5,29.93,SSE,159,0.0,2.0,96,0.00,,,0.00,Wunderground v.1.15,2013-03-23 05:38:00,
2013-03-23 01:40:00,71.7,70.5,29.93,SSE,159,3.0,3.0,96,0.00,,,0.00,Wunderground v.1.15,2013-03-23 05:40:00,
2013-03-23 01:42:00,71.7,70.5,29.94,SSE,159,0.0,3.0,96,0.00,,,0.00,Wunderground v.1.15,2013-03-23 05:42:00,
2013-03-23 01:43:00,71.7,70.5,29.94,SSE,159,0.0,3.0,96,0.00,,,0.00,Wunderground v.1.15,2013-03-23 05:43:00,
2013-03-23 01:45:00,71.8,70.6,29.94,SSE,159,0.0,3.0,96,0.00,,,0.00,Wunderground v.1.15,2013-03-23 05:45:00,
2013-03-23 01:47:00,71.8,70.6,29.94,SSE,159,0.0,3.0,96,0.00,,,0.00,Wunderground v.1.15,2013-03-23 05:47:00,
2013-03-23 01:51:00,71.9,70.7,29.94,SSE,159,0.0,0.0,96,0.00,,,0.00,Wunderground v.1.15,2013-03-23 05:51:00,
2013-03-23 01:52:00,71.8,70.6,29.94,SSE,159,0.0,0.0,96,0.00,,,0.00,Wunderground v.1.15,2013-03-23 05:52:00,
2013-03-23 01:55:00,71.9,70.7,29.93,SSE,159,0.0,0.0,96,0.00,,,0.00,Wunderground v.1.15,2013-03-23 05:55:00,
2013-03-23 01:57:00,71.9,70.7,29.94,SSE,159,0.0,0.0,96,0.00,,,0.00,Wunderground v.1.15,2013-03-23 05:57:00,
2013-03-23 01:58:00,71.9,70.7,29.93,SSE,159,0.0,0.0,96,0.00,,,0.00,Wunderground v.1.15,2013-03-23 05:58:00,
2013-03-23 02:01:00,71.9,70.7,29.93,SSE,159,0.0,0.0,96,0.00,,,0.00,Wunderground v.1.15,2013-03-23 06:01:00,
2013-03-23 02:03:00,71.9,70.7,29.94,SSE,159,0.0,0.0,96,0.00,,,0.00,Wunderground v.1.15,2013-03-23 06:03:00,
2013-03-23 02:05:00,72.0,70.8,29.94,SSE,159,0.0,0.0,96,0.00,,,0.00,Wunderground v.1.15,2013-03-23 06:05:00,
2013-03-23 02:06:00,72.0,70.8,29.94,SSE,159,0.0,0.0,96,0.00,,,0.00,Wunderground v.1.15,2013-03-23 06:06:00,
2013-03-23 02:08:00,71.9,70.7,29.93,SSE,159,0.0,2.0,96,0.00,,,0.00,Wunderground v.1.15,2013-03-23 06:08:00,
2013-03-23 02:11:00,71.9,70.4,29.93,SSE,159,0.0,0.0,95,0.00,,,0.00,Wunderground v.1.15,2013-03-23 06:11:00,
2013-03-23 02:12:00,71.9,70.4,29.93,SSE,159,0.0,0.0,95,0.00,,,0.00,Wunderground v.1.15,2013-03-23 06:12:00,
2013-03-23 02:14:00,71.9,70.4,29.93,SSE,159,0.0,2.0,95,0.00,,,0.00,Wunderground v.1.15,2013-03-23 06:14:00,
2013-03-23 02:16:00,71.9,70.4,29.92,SSE,159,0.0,2.0,95,0.00,,,0.00,Wunderground v.1.15,2013-03-23 06:16:00,
2013-03-23 02:17:00,71.9,70.4,29.93,SSE,159,0.0,2.0,95,0.00,,,0.00,Wunderground v.1.15,2013-03-23 06:17:00,
2013-03-23 02:19:00,71.9,70.4,29.93,SSE,159,0.0,2.0,95,0.00,,,0.00,Wunderground v.1.15,2013-03-23 06:19:00,
2013-03-23 02:22:00,71.9,70.4,29.93,SSE,159,0.0,0.0,95,0.00,,,0.00,Wunderground v.1.15,2013-03-23 06:22:00,
2013-03-23 02:23:00,71.9,70.4,29.93,SSE,159,0.0,0.0,95,0.00,,,0.00,Wunderground v.1.15,2013-03-23 06:23:00,
2013-03-23 02:24:00,71.9,70.4,29.92,SSE,159,0.0,0.0,95,0.00,,,0.00,Wunderground v.1.15,2013-03-23 06:24:00,
2013-03-23 02:27:00,71.9,70.4,29.93,SSE,159,0.0,0.0,95,0.00,,,0.00,Wunderground v.1.15,2013-03-23 06:27:00,
2013-03-23 02:28:00,71.9,70.4,29.93,SSE,159,0.0,0.0,95,0.00,,,0.00,Wunderground v.1.15,2013-03-23 06:28:00,
2013-03-23 02:30:00,71.9,70.4,29.93,SSE,159,0.0,1.0,95,0.00,,,0.00,Wunderground v.1.15,2013-03-23 06:30:00,
2013-03-23 02:32:00,71.9,70.7,29.93,SSE,159,0.0,2.0,96,0.00,,,0.00,Wunderground v.1.15,2013-03-23 06:32:00,
2013-03-23 02:33:00,71.8,70.6,29.92,SSE,159,0.0,2.0,96,0.00,,,0.00,Wunderground v.1.15,2013-03-23 06:33:00,
2013-03-23 02:34:00,71.8,70.6,29.92,SSE,159,0.0,2.0,96,0.00,,,0.00,Wunderground v.1.15,2013-03-23 06:34:00,
2013-03-23 02:35:00,71.8,70.6,29.92,SSE,159,0.0,2.0,96,0.00,,,0.00,Wunderground v.1.15,2013-03-23 06:35:00,
2013-03-23 02:37:00,71.8,70.6,29.92,SSE,159,0.0,2.0,96,0.00,,,0.00,Wunderground v.1.15,2013-03-23 06:37:00,
2013-03-23 02:39:00,71.8,70.6,29.92,SSE,163,4.0,4.0,96,0.00,,,0.00,Wunderground v.1.15,2013-03-23 06:39:00,
2013-03-23 02:40:00,71.8,70.6,29.92,SSE,163,3.0,4.0,96,0.00,,,0.00,Wunderground v.1.15,2013-03-23 06:40:00,
2013-03-23 02:42:00,71.8,70.6,29.92,SSE,163,0.0,1.0,96,0.00,,,0.00,Wunderground v.1.15,2013-03-23 06:42:00,
2013-03-23 02:44:00,71.8,70.6,29.92,SSE,159,5.0,5.0,96,0.00,,,0.00,Wunderground v.1.15,2013-03-23 06:44:00,
2013-03-23 02:45:00,71.8,70.6,29.92,SSE,155,4.0,5.0,96,0.00,,,0.00,Wunderground v.1.15,2013-03-23 06:45:00,
2013-03-23 02:48:00,71.8,70.6,29.91,SSE,158,3.0,5.0,96,0.00,,,0.00,Wunderground v.1.15,2013-03-23 06:48:00,
2013-03-23 02:49:00,71.8,70.6,29.92,SSE,165,2.0,5.0,96,0.00,,,0.00,Wunderground v.1.15,2013-03-23 06:49:00,
2013-03-23 02:50:00,71.9,70.7,29.92,SSE,165,0.0,1.0,96,0.00,,,0.00,Wunderground v.1.15,2013-03-23 06:50:00,
2013-03-23 02:51:00,71.9,70.7,29.92,SSE,165,1.0,1.0,96,0.00,,,0.00,Wunderground v.1.15,2013-03-23 06:51:00,
2013-03-23 02:53:00,71.9,70.7,29.92,SSE,166,0.0,5.0,96,0.00,,,0.00,Wunderground v.1.15,2013-03-23 06:53:00,
2013-03-23 02:55:00,71.9,70.7,29.92,SSE,166,0.0,5.0,96,0.00,,,0.00,Wunderground v.1.15,2013-03-23 06:55:00,
2013-03-23 02:56:00,71.9,70.7,29.92,SSE,166,0.0,5.0,96,0.00,,,0.00,Wunderground v.1.15,2013-03-23 06:56:00,
2013-03-23 02:57:00,71.9,70.7,29.92,SSE,166,1.0,5.0,96,0.00,,,0.00,Wunderground v.1.15,2013-03-23 06:57:00,
2013-03-23 02:59:00,72.0,70.8,29.92,SSE,166,0.0,5.0,96,0.00,,,0.00,Wunderground v.1.15,2013-03-23 06:59:00,
2013-03-23 03:00:00,72.0,70.8,29.92,SSE,166,0.0,5.0,96,0.00,,,0.00,Wunderground v.1.15,2013-03-23 07:00:00,
2013-03-23 03:01:00,72.0,70.8,29.92,SSE,166,0.0,1.0,96,0.00,,,0.00,Wunderground v.1.15,2013-03-23 07:01:00,
2013-03-23 03:03:00,72.0,70.8,29.92,SSE,166,0.0,1.0,96,0.00,,,0.00,Wunderground v.1.15,2013-03-23 07:03:00,
2013-03-23 03:04:00,72.0,70.8,29.92,SSE,166,0.0,1.0,96,0.00,,,0.00,Wunderground v.1.15,2013-03-23 07:04:00,
2013-03-23 03:05:00,72.0,70.8,29.92,SSE,166,0.0,1.0,96,0.00,,,0.00,Wunderground v.1.15,2013-03-23 07:05:00,
2013-03-23 03:07:00,72.0,70.8,29.92,SSE,166,0.0,1.0,96,0.00,,,0.00,Wunderground v.1.15,2013-03-23 07:07:00,
2013-03-23 03:09:00,72.0,70.8,29.92,SSE,167,3.0,3.0,96,0.00,,,0.00,Wunderground v.1.15,2013-03-23 07:09:00,
2013-03-23 03:10:00,72.1,70.9,29.92,SSE,167,0.0,1.0,96,0.00,,,0.00,Wunderground v.1.15,2013-03-23 07:10:00,
2013-03-23 03:12:00,72.1,70.9,29.92,South,169,5.0,5.0,96,0.00,,,0.00,Wunderground v.1.15,2013-03-23 07:12:00,
2013-03-23 03:14:00,72.1,70.9,29.92,South,189,0.0,7.0,96,0.00,,,0.00,Wunderground v.1.15,2013-03-23 07:14:00,
2013-03-23 03:15:00,72.1,70.9,29.92,South,190,0.0,7.0,96,0.00,,,0.00,Wunderground v.1.15,2013-03-23 07:15:00,
2013-03-23 03:17:00,72.1,70.9,29.91,SSW,196,0.0,7.0,96,0.00,,,0.00,Wunderground v.1.15,2013-03-23 07:17:00,
2013-03-23 03:19:00,72.1,70.9,29.90,South,178,0.0,7.0,96,0.00,,,0.00,Wunderground v.1.15,2013-03-23 07:19:00,
2013-03-23 03:21:00,72.1,70.9,29.90,South,177,0.0,6.0,96,0.00,,,0.00,Wunderground v.1.15,2013-03-23 07:21:00,
2013-03-23 03:22:00,72.2,71.0,29.91,South,188,1.0,8.0,96,0.00,,,0.00,Wunderground v.1.15,2013-03-23 07:22:00,
2013-03-23 03:24:00,72.2,71.0,29.90,South,182,8.0,8.0,96,0.00,,,0.00,Wunderground v.1.15,2013-03-23 07:24:00,
2013-03-23 03:26:00,72.2,71.0,29.90,South,184,0.0,8.0,96,0.00,,,0.00,Wunderground v.1.15,2013-03-23 07:26:00,
2013-03-23 03:27:00,72.2,71.0,29.90,SSW,198,4.0,8.0,96,0.00,,,0.00,Wunderground v.1.15,2013-03-23 07:27:00,
2013-03-23 03:29:00,72.3,71.1,29.90,South,189,0.0,8.0,96,0.00,,,0.00,Wunderground v.1.15,2013-03-23 07:29:00,
2013-03-23 03:31:00,72.3,71.1,29.90,SSW,195,0.0,4.0,96,0.00,,,0.00,Wunderground v.1.15,2013-03-23 07:31:00,
2013-03-23 03:32:00,72.3,71.1,29.89,South,170,3.0,7.0,96,0.00,,,0.00,Wunderground v.1.15,2013-03-23 07:32:00,
2013-03-23 03:34:00,72.3,71.1,29.89,South,181,5.0,7.0,96,0.00,,,0.00,Wunderground v.1.15,2013-03-23 07:34:00,
2013-03-23 03:35:00,72.4,71.2,29.89,South,172,0.0,7.0,96,0.00,,,0.00,Wunderground v.1.15,2013-03-23 07:35:00,
2013-03-23 03:36:00,72.4,71.2,29.90,South,181,5.0,8.0,96,0.00,,,0.00,Wunderground v.1.15,2013-03-23 07:36:00,
2013-03-23 03:38:00,72.4,71.2,29.90,South,174,6.0,8.0,96,0.00,,,0.00,Wunderground v.1.15,2013-03-23 07:38:00,
2013-03-23 03:40:00,72.4,71.2,29.90,South,185,0.0,8.0,96,0.00,,,0.00,Wunderground v.1.15,2013-03-23 07:40:00,
2013-03-23 03:42:00,72.5,71.3,29.90,South,171,6.0,6.0,96,0.00,,,0.00,Wunderground v.1.15,2013-03-23 07:42:00,
2013-03-23 03:43:00,72.5,71.3,29.90,South,172,0.0,6.0,96,0.00,,,0.00,Wunderground v.1.15,2013-03-23 07:43:00,
2013-03-23 03:45:00,72.5,71.3,29.89,SSE,167,0.0,6.0,96,0.00,,,0.00,Wunderground v.1.15,2013-03-23 07:45:00,
2013-03-23 03:46:00,72.5,71.3,29.89,SSE,167,0.0,6.0,96,0.00,,,0.00,Wunderground v.1.15,2013-03-23 07:46:00,
2013-03-23 03:47:00,72.5,71.3,29.89,SSW,199,3.0,10.0,96,0.00,,,0.00,Wunderground v.1.15,2013-03-23 07:47:00,
2013-03-23 03:48:00,72.5,71.3,29.89,SSW,210,1.0,10.0,96,0.00,,,0.00,Wunderground v.1.15,2013-03-23 07:48:00,
2013-03-23 03:50:00,72.5,71.3,29.89,SSW,209,2.0,6.0,96,0.00,,,0.00,Wunderground v.1.15,2013-03-23 07:50:00,
2013-03-23 03:51:00,72.6,71.4,29.89,South,191,0.0,6.0,96,0.00,,,0.00,Wunderground v.1.15,2013-03-23 07:51:00,
2013-03-23 03:53:00,72.6,71.4,29.89,South,187,2.0,6.0,96,0.00,,,0.00,Wunderground v.1.15,2013-03-23 07:53:00,
2013-03-23 03:55:00,72.6,71.4,29.89,South,182,0.0,7.0,96,0.00,,,0.00,Wunderground v.1.15,2013-03-23 07:55:00,
2013-03-23 03:56:00,72.6,71.4,29.89,South,182,0.0,7.0,96,0.00,,,0.00,Wunderground v.1.15,2013-03-23 07:56:00,
2013-03-23 03:58:00,72.6,71.4,29.89,South,183,0.0,7.0,96,0.00,,,0.00,Wunderground v.1.15,2013-03-23 07:58:00,
2013-03-23 04:01:00,72.6,71.4,29.89,South,180,2.0,4.0,96,0.00,,,0.00,Wunderground v.1.15,2013-03-23 08:01:00,
2013-03-23 04:03:00,72.6,71.4,29.89,South,181,4.0,4.0,96,0.00,,,0.00,Wunderground v.1.15,2013-03-23 08:03:00,
2013-03-23 04:04:00,72.6,71.4,29.89,South,183,1.0,6.0,96,0.00,,,0.00,Wunderground v.1.15,2013-03-23 08:04:00,
2013-03-23 04:06:00,72.6,71.4,29.88,South,182,4.0,6.0,96,0.00,,,0.00,Wunderground v.1.15,2013-03-23 08:06:00,
2013-03-23 04:07:00,72.6,71.4,29.88,South,180,4.0,6.0,96,0.00,,,0.00,Wunderground v.1.15,2013-03-23 08:07:00,
2013-03-23 04:08:00,72.6,71.4,29.88,SSW,196,1.0,6.0,96,0.00,,,0.00,Wunderground v.1.15,2013-03-23 08:08:00,
2013-03-23 04:10:00,72.6,71.4,29.88,South,181,4.0,6.0,96,0.00,,,0.00,Wunderground v.1.15,2013-03-23 08:10:00,
2013-03-23 04:11:00,72.6,71.4,29.88,SSW,204,1.0,6.0,96,0.00,,,0.00,Wunderground v.1.15,2013-03-23 08:11:00,
2013-03-23 04:12:00,72.6,71.4,29.88,South,178,4.0,8.0,96,0.00,,,0.00,Wunderground v.1.15,2013-03-23 08:12:00,
2013-03-23 04:14:00,72.6,71.4,29.88,South,188,7.0,8.0,96,0.00,,,0.00,Wunderground v.1.15,2013-03-23 08:14:00,
2013-03-23 04:16:00,72.5,71.3,29.88,South,180,0.0,8.0,96,0.00,,,0.00,Wunderground v.1.15,2013-03-23 08:16:00,
2013-03-23 04:17:00,72.6,71.4,29.88,South,180,0.0,8.0,96,0.00,,,0.00,Wunderground v.1.15,2013-03-23 08:17:00,
2013-03-23 04:19:00,72.6,71.4,29.88,SSE,167,6.0,8.0,96,0.00,,,0.00,Wunderground v.1.15,2013-03-23 08:19:00,
2013-03-23 04:21:00,72.6,71.4,29.88,SSE,166,1.0,5.0,96,0.00,,,0.00,Wunderground v.1.15,2013-03-23 08:21:00,
2013-03-23 04:22:00,72.6,71.4,29.88,South,173,0.0,6.0,96,0.00,,,0.00,Wunderground v.1.15,2013-03-23 08:22:00,
2013-03-23 04:23:00,72.6,71.4,29.88,SSW,209,6.0,6.0,96,0.00,,,0.00,Wunderground v.1.15,2013-03-23 08:23:00,
2013-03-23 04:24:00,72.5,71.3,29.88,South,188,5.0,7.0,96,0.00,,,0.00,Wunderground v.1.15,2013-03-23 08:24:00,
2013-03-23 04:27:00,72.5,71.3,29.88,South,172,0.0,7.0,96,0.00,,,0.00,Wunderground v.1.15,2013-03-23 08:27:00,
2013-03-23 04:29:00,72.5,71.3,29.88,SSE,163,4.0,7.0,96,0.00,,,0.01,Wunderground v.1.15,2013-03-23 08:29:00,
2013-03-23 04:30:00,72.6,71.4,29.88,SSE,164,0.0,3.0,96,0.00,,,0.01,Wunderground v.1.15,2013-03-23 08:30:00,
2013-03-23 04:33:00,72.5,71.3,29.88,South,182,5.0,6.0,96,0.00,,,0.01,Wunderground v.1.15,2013-03-23 08:33:00,
2013-03-23 04:34:00,72.6,71.4,29.88,South,178,0.0,6.0,96,0.00,,,0.01,Wunderground v.1.15,2013-03-23 08:34:00,
2013-03-23 04:36:00,72.5,71.3,29.88,South,180,1.0,6.0,96,0.00,,,0.01,Wunderground v.1.15,2013-03-23 08:36:00,
2013-03-23 04:38:00,72.5,71.3,29.88,South,184,0.0,6.0,96,0.00,,,0.01,Wunderground v.1.15,2013-03-23 08:38:00,
2013-03-23 04:39:00,72.5,71.3,29.88,South,190,0.0,6.0,96,0.00,,,0.01,Wunderground v.1.15,2013-03-23 08:39:00,
2013-03-23 04:41:00,72.5,71.3,29.88,SSW,204,7.0,7.0,96,0.00,,,0.01,Wunderground v.1.15,2013-03-23 08:41:00,
2013-03-23 04:43:00,72.5,71.3,29.88,SSW,208,6.0,7.0,96,0.00,,,0.01,Wunderground v.1.15,2013-03-23 08:43:00,
2013-03-23 04:44:00,72.5,71.3,29.88,SSW,197,3.0,7.0,96,0.00,,,0.01,Wunderground v.1.15,2013-03-23 08:44:00,
2013-03-23 04:48:00,72.6,71.4,29.88,South,178,1.0,7.0,96,0.00,,,0.01,Wunderground v.1.15,2013-03-23 08:48:00,
2013-03-23 04:49:00,72.6,71.4,29.88,South,178,1.0,7.0,96,0.00,,,0.01,Wunderground v.1.15,2013-03-23 08:49:00,
2013-03-23 04:50:00,72.6,71.4,29.88,South,178,0.0,7.0,96,0.00,,,0.01,Wunderground v.1.15,2013-03-23 08:50:00,
2013-03-23 04:53:00,72.6,71.4,29.88,South,177,4.0,7.0,96,0.00,,,0.01,Wunderground v.1.15,2013-03-23 08:53:00,
2013-03-23 04:54:00,72.6,71.4,29.88,SSW,194,3.0,7.0,96,0.00,,,0.01,Wunderground v.1.15,2013-03-23 08:54:00,
2013-03-23 04:55:00,72.6,71.4,29.88,SSW,194,0.0,7.0,96,0.00,,,0.01,Wunderground v.1.15,2013-03-23 08:55:00,
2013-03-23 04:58:00,72.6,71.4,29.88,South,182,0.0,7.0,96,0.00,,,0.01,Wunderground v.1.15,2013-03-23 08:58:00,
2013-03-23 04:59:00,72.6,71.4,29.88,South,182,0.0,7.0,96,0.00,,,0.01,Wunderground v.1.15,2013-03-23 08:59:00,
2013-03-23 05:01:00,72.6,71.4,29.88,South,186,0.0,2.0,96,0.00,,,0.01,Wunderground v.1.15,2013-03-23 09:01:00,
2013-03-23 05:04:00,72.6,71.4,29.88,SSW,205,2.0,5.0,96,0.00,,,0.01,Wunderground v.1.15,2013-03-23 09:04:00,
2013-03-23 05:05:00,72.7,71.5,29.88,SSW,196,1.0,5.0,96,0.00,,,0.01,Wunderground v.1.15,2013-03-23 09:05:00,
2013-03-23 05:07:00,72.7,71.5,29.88,SSW,205,0.0,6.0,96,0.00,,,0.01,Wunderground v.1.15,2013-03-23 09:07:00,
2013-03-23 05:09:00,72.7,71.5,29.88,SSW,205,0.0,6.0,96,0.00,,,0.01,Wunderground v.1.15,2013-03-23 09:09:00,
2013-03-23 05:11:00,72.6,71.4,29.88,SSW,202,0.0,1.0,96,0.00,,,0.01,Wunderground v.1.15,2013-03-23 09:11:00,
2013-03-23 05:12:00,72.7,71.5,29.88,South,184,0.0,5.0,96,0.00,,,0.01,Wunderground v.1.15,2013-03-23 09:12:00,
2013-03-23 05:13:00,72.7,71.5,29.88,South,184,0.0,5.0,96,0.00,,,0.01,Wunderground v.1.15,2013-03-23 09:13:00,
2013-03-23 05:14:00,72.7,71.5,29.88,South,184,1.0,5.0,96,0.00,,,0.01,Wunderground v.1.15,2013-03-23 09:14:00,
2013-03-23 05:16:00,72.7,71.5,29.88,South,184,0.0,5.0,96,0.00,,,0.01,Wunderground v.1.15,2013-03-23 09:16:00,
2013-03-23 05:18:00,72.7,71.5,29.88,South,169,4.0,5.0,96,0.00,,,0.01,Wunderground v.1.15,2013-03-23 09:18:00,
2013-03-23 05:19:00,72.7,71.5,29.88,South,172,0.0,5.0,96,0.00,,,0.01,Wunderground v.1.15,2013-03-23 09:19:00,
2013-03-23 05:22:00,72.7,71.5,29.88,SSW,195,0.0,4.0,96,0.00,,,0.01,Wunderground v.1.15,2013-03-23 09:22:00,
2013-03-23 05:23:00,72.7,71.5,29.88,South,190,0.0,4.0,96,0.00,,,0.01,Wunderground v.1.15,2013-03-23 09:23:00,
2013-03-23 05:24:00,72.7,71.5,29.88,South,191,0.0,5.0,96,0.00,,,0.01,Wunderground v.1.15,2013-03-23 09:24:00,
2013-03-23 05:27:00,72.7,71.5,29.89,South,189,0.0,5.0,96,0.00,,,0.01,Wunderground v.1.15,2013-03-23 09:27:00,
2013-03-23 05:28:00,72.7,71.5,29.89,SSW,192,1.0,5.0,96,0.00,,,0.01,Wunderground v.1.15,2013-03-23 09:28:00,
2013-03-23 05:30:00,72.8,71.6,29.89,South,190,0.0,5.0,96,0.00,,,0.01,Wunderground v.1.15,2013-03-23 09:30:00,
2013-03-23 05:31:00,72.7,71.5,29.88,South,186,4.0,4.0,96,0.00,,,0.01,Wunderground v.1.15,2013-03-23 09:31:00,
2013-03-23 05:32:00,72.8,71.6,29.88,South,185,0.0,4.0,96,0.00,,,0.01,Wunderground v.1.15,2013-03-23 09:32:00,
2013-03-23 05:33:00,72.8,71.6,29.88,South,185,0.0,4.0,96,0.00,,,0.01,Wunderground v.1.15,2013-03-23 09:33:00,
2013-03-23 05:35:00,72.8,71.6,29.89,South,185,1.0,4.0,96,0.00,,,0.01,Wunderground v.1.15,2013-03-23 09:35:00,
2013-03-23 05:36:00,72.7,71.5,29.89,South,184,1.0,4.0,96,0.00,,,0.01,Wunderground v.1.15,2013-03-23 09:36:00,
2013-03-23 05:37:00,72.7,71.5,29.88,South,177,0.0,4.0,96,0.00,,,0.01,Wunderground v.1.15,2013-03-23 09:37:00,
2013-03-23 05:38:00,72.7,71.5,29.88,South,177,0.0,4.0,96,0.00,,,0.01,Wunderground v.1.15,2013-03-23 09:38:00,
2013-03-23 05:40:00,72.8,71.6,29.88,South,178,1.0,1.0,96,0.00,,,0.01,Wunderground v.1.15,2013-03-23 09:40:00,
2013-03-23 05:42:00,72.8,71.6,29.88,South,176,1.0,5.0,96,0.00,,,0.01,Wunderground v.1.15,2013-03-23 09:42:00,
2013-03-23 05:43:00,72.8,71.6,29.89,South,176,0.0,5.0,96,0.00,,,0.01,Wunderground v.1.15,2013-03-23 09:43:00,
2013-03-23 05:46:00,72.8,71.6,29.89,South,176,0.0,5.0,96,0.00,,,0.01,Wunderground v.1.15,2013-03-23 09:46:00,
2013-03-23 05:48:00,72.8,71.6,29.89,South,176,0.0,5.0,96,0.00,,,0.01,Wunderground v.1.15,2013-03-23 09:48:00,
2013-03-23 05:50:00,72.7,71.5,29.89,South,176,0.0,5.0,96,0.00,,,0.01,Wunderground v.1.15,2013-03-23 09:50:00,
2013-03-23 05:51:00,72.7,71.5,29.89,South,176,0.0,1.0,96,0.00,,,0.01,Wunderground v.1.15,2013-03-23 09:51:00,
2013-03-23 05:53:00,72.7,71.5,29.89,South,178,0.0,5.0,96,0.00,,,0.01,Wunderground v.1.15,2013-03-23 09:53:00,
2013-03-23 05:54:00,72.7,71.5,29.89,South,178,0.0,5.0,96,0.00,,,0.01,Wunderground v.1.15,2013-03-23 09:54:00,
2013-03-23 05:55:00,72.7,71.5,29.89,South,178,0.0,5.0,96,0.00,,,0.01,Wunderground v.1.15,2013-03-23 09:55:00,
2013-03-23 05:56:00,72.7,71.5,29.89,South,178,0.0,5.0,96,0.00,,,0.01,Wunderground v.1.15,2013-03-23 09:56:00,
2013-03-23 05:58:00,72.7,71.5,29.89,South,178,0.0,5.0,96,0.00,,,0.01,Wunderground v.1.15,2013-03-23 09:58:00,
2013-03-23 06:00:00,72.7,71.5,29.89,South,178,0.0,5.0,96,0.00,,,0.01,Wunderground v.1.15,2013-03-23 10:00:00,
2013-03-23 06:01:00,72.7,71.5,29.89,South,178,0.0,1.0,96,0.00,,,0.01,Wunderground v.1.15,2013-03-23 10:01:00,
2013-03-23 06:04:00,72.7,71.5,29.89,South,178,0.0,1.0,96,0.00,,,0.01,Wunderground v.1.15,2013-03-23 10:04:00,
2013-03-23 06:06:00,72.7,71.5,29.89,South,178,2.0,2.0,96,0.00,,,0.01,Wunderground v.1.15,2013-03-23 10:06:00,
2013-03-23 06:07:00,72.7,71.5,29.89,South,178,0.0,2.0,96,0.00,,,0.01,Wunderground v.1.15,2013-03-23 10:07:00,
2013-03-23 06:08:00,72.7,71.5,29.89,South,178,0.0,2.0,96,0.00,,,0.01,Wunderground v.1.15,2013-03-23 10:08:00,
2013-03-23 06:09:00,72.7,71.5,29.89,South,178,0.0,2.0,96,0.00,,,0.01,Wunderground v.1.15,2013-03-23 10:09:00,
2013-03-23 06:11:00,72.7,71.5,29.89,South,178,0.0,0.0,96,0.00,,,0.01,Wunderground v.1.15,2013-03-23 10:11:00,
2013-03-23 06:12:00,72.6,71.4,29.89,South,178,0.0,0.0,96,0.00,,,0.01,Wunderground v.1.15,2013-03-23 10:12:00,
2013-03-23 06:14:00,72.6,71.4,29.89,South,178,0.0,1.0,96,0.00,,,0.01,Wunderground v.1.15,2013-03-23 10:14:00,
2013-03-23 06:15:00,72.6,71.4,29.89,South,178,0.0,1.0,96,0.00,,,0.01,Wunderground v.1.15,2013-03-23 10:15:00,
2013-03-23 06:16:00,72.6,71.4,29.89,South,178,0.0,1.0,96,0.00,,,0.01,Wunderground v.1.15,2013-03-23 10:16:00,
2013-03-23 06:17:00,72.6,71.4,29.89,South,178,2.0,2.0,96,0.00,,,0.01,Wunderground v.1.15,2013-03-23 10:17:00,
2013-03-23 06:19:00,72.6,71.4,29.89,South,178,4.0,4.0,96,0.00,,,0.01,Wunderground v.1.15,2013-03-23 10:19:00,
2013-03-23 06:21:00,72.6,71.4,29.89,South,178,0.0,2.0,96,0.00,,,0.01,Wunderground v.1.15,2013-03-23 10:21:00,
2013-03-23 06:22:00,72.6,71.4,29.89,South,178,0.0,2.0,96,0.00,,,0.01,Wunderground v.1.15,2013-03-23 10:22:00,
2013-03-23 06:25:00,72.6,71.4,29.89,South,178,0.0,2.0,96,0.00,,,0.01,Wunderground v.1.15,2013-03-23 10:25:00,
2013-03-23 06:26:00,72.6,71.4,29.89,South,178,0.0,2.0,96,0.00,,,0.01,Wunderground v.1.15,2013-03-23 10:26:00,
2013-03-23 06:27:00,72.6,71.4,29.89,South,178,0.0,2.0,96,0.00,,,0.01,Wunderground v.1.15,2013-03-23 10:27:00,
2013-03-23 06:28:00,72.6,71.4,29.89,South,178,0.0,2.0,96,0.00,,,0.01,Wunderground v.1.15,2013-03-23 10:28:00,
2013-03-23 06:30:00,72.6,71.4,29.89,South,178,0.0,0.0,96,0.00,,,0.01,Wunderground v.1.15,2013-03-23 10:30:00,
2013-03-23 06:32:00,72.5,71.3,29.89,South,178,0.0,0.0,96,0.00,,,0.01,Wunderground v.1.15,2013-03-23 10:32:00,
2013-03-23 06:33:00,72.5,71.3,29.89,South,178,0.0,0.0,96,0.00,,,0.01,Wunderground v.1.15,2013-03-23 10:33:00,
2013-03-23 06:35:00,72.4,71.2,29.89,South,178,0.0,0.0,96,0.00,,,0.01,Wunderground v.1.15,2013-03-23 10:35:00,
2013-03-23 06:37:00,72.4,71.2,29.89,South,178,0.0,0.0,96,0.00,,,0.01,Wunderground v.1.15,2013-03-23 10:37:00,
2013-03-23 06:38:00,72.4,71.2,29.89,South,178,0.0,0.0,96,0.00,,,0.01,Wunderground v.1.15,2013-03-23 10:38:00,
2013-03-23 06:40:00,72.4,71.2,29.90,South,178,0.0,0.0,96,0.00,,,0.01,Wunderground v.1.15,2013-03-23 10:40:00,
2013-03-23 06:43:00,72.3,71.1,29.90,South,178,0.0,0.0,96,0.00,,,0.01,Wunderground v.1.15,2013-03-23 10:43:00,
2013-03-23 06:45:00,72.2,71.0,29.89,South,178,0.0,0.0,96,0.00,,,0.01,Wunderground v.1.15,2013-03-23 10:45:00,
2013-03-23 06:48:00,72.3,71.1,29.90,South,178,0.0,0.0,96,0.00,,,0.01,Wunderground v.1.15,2013-03-23 10:48:00,
2013-03-23 06:50:00,72.3,71.1,29.90,South,178,0.0,0.0,96,0.00,,,0.01,Wunderground v.1.15,2013-03-23 10:50:00,
2013-03-23 06:52:00,72.3,71.1,29.90,South,178,0.0,0.0,96,0.00,,,0.01,Wunderground v.1.15,2013-03-23 10:52:00,
2013-03-23 06:53:00,72.3,71.1,29.90,South,178,0.0,0.0,96,0.00,,,0.01,Wunderground v.1.15,2013-03-23 10:53:00,
2013-03-23 06:54:00,72.2,71.0,29.90,South,178,0.0,0.0,96,0.00,,,0.01,Wunderground v.1.15,2013-03-23 10:54:00,
2013-03-23 06:55:00,72.3,71.1,29.89,South,178,0.0,0.0,96,0.00,,,0.01,Wunderground v.1.15,2013-03-23 10:55:00,
2013-03-23 06:57:00,72.2,71.0,29.90,South,178,0.0,0.0,96,0.00,,,0.01,Wunderground v.1.15,2013-03-23 10:57:00,
2013-03-23 06:59:00,72.2,71.0,29.90,South,178,0.0,0.0,96,0.00,,,0.01,Wunderground v.1.15,2013-03-23 10:59:00,
2013-03-23 07:01:00,72.1,70.9,29.90,South,178,0.0,0.0,96,0.00,,,0.01,Wunderground v.1.15,2013-03-23 11:01:00,
2013-03-23 07:02:00,72.1,70.9,29.90,South,178,0.0,0.0,96,0.00,,,0.01,Wunderground v.1.15,2013-03-23 11:02:00,
2013-03-23 07:04:00,71.9,70.7,29.90,South,178,0.0,0.0,96,0.00,,,0.01,Wunderground v.1.15,2013-03-23 11:04:00,
2013-03-23 07:05:00,72.0,70.8,29.90,South,178,0.0,0.0,96,0.00,,,0.01,Wunderground v.1.15,2013-03-23 11:05:00,
2013-03-23 07:06:00,71.9,70.7,29.90,South,178,0.0,0.0,96,0.00,,,0.01,Wunderground v.1.15,2013-03-23 11:06:00,
2013-03-23 07:08:00,71.9,70.7,29.90,South,178,0.0,0.0,96,0.00,,,0.01,Wunderground v.1.15,2013-03-23 11:08:00,
2013-03-23 07:10:00,71.9,70.7,29.90,South,178,0.0,0.0,96,0.00,,,0.01,Wunderground v.1.15,2013-03-23 11:10:00,
2013-03-23 07:11:00,71.8,70.6,29.90,South,178,0.0,0.0,96,0.00,,,0.01,Wunderground v.1.15,2013-03-23 11:11:00,
2013-03-23 07:12:00,71.8,70.6,29.90,South,178,0.0,0.0,96,0.00,,,0.01,Wunderground v.1.15,2013-03-23 11:12:00,
2013-03-23 07:14:00,71.8,70.6,29.90,South,178,0.0,0.0,96,0.00,,,0.01,Wunderground v.1.15,2013-03-23 11:14:00,
2013-03-23 07:15:00,71.8,70.6,29.90,South,178,0.0,0.0,96,0.00,,,0.01,Wunderground v.1.15,2013-03-23 11:15:00,
2013-03-23 07:17:00,71.7,70.5,29.90,South,178,0.0,0.0,96,0.00,,,0.01,Wunderground v.1.15,2013-03-23 11:17:00,
2013-03-23 07:19:00,71.7,70.5,29.90,South,178,0.0,0.0,96,0.00,,,0.01,Wunderground v.1.15,2013-03-23 11:19:00,
2013-03-23 07:21:00,71.6,70.4,29.90,South,178,0.0,0.0,96,0.00,,,0.01,Wunderground v.1.15,2013-03-23 11:21:00,
2013-03-23 07:22:00,71.6,70.4,29.91,South,178,0.0,0.0,96,0.00,,,0.01,Wunderground v.1.15,2013-03-23 11:22:00,
2013-03-23 07:24:00,71.6,70.4,29.90,South,178,0.0,0.0,96,0.00,,,0.01,Wunderground v.1.15,2013-03-23 11:24:00,
2013-03-23 07:26:00,71.6,70.4,29.90,South,178,0.0,0.0,96,0.00,,,0.01,Wunderground v.1.15,2013-03-23 11:26:00,
2013-03-23 07:27:00,71.6,70.4,29.90,South,178,0.0,0.0,96,0.00,,,0.01,Wunderground v.1.15,2013-03-23 11:27:00,
2013-03-23 07:29:00,71.6,70.4,29.90,South,178,0.0,0.0,96,0.00,,,0.01,Wunderground v.1.15,2013-03-23 11:29:00,
2013-03-23 07:31:00,71.7,70.5,29.90,South,178,0.0,0.0,96,0.00,,,0.01,Wunderground v.1.15,2013-03-23 11:31:00,
2013-03-23 07:32:00,71.7,70.5,29.90,South,178,0.0,0.0,96,0.00,,,0.01,Wunderground v.1.15,2013-03-23 11:32:00,
2013-03-23 07:35:00,71.7,70.5,29.91,South,178,0.0,2.0,96,0.00,,,0.01,Wunderground v.1.15,2013-03-23 11:35:00,
2013-03-23 07:36:00,71.7,70.5,29.91,South,178,0.0,2.0,96,0.00,,,0.01,Wunderground v.1.15,2013-03-23 11:36:00,
2013-03-23 07:37:00,71.8,70.6,29.91,South,178,0.0,2.0,96,0.00,,,0.01,Wunderground v.1.15,2013-03-23 11:37:00,
2013-03-23 07:40:00,71.8,70.6,29.91,South,178,0.0,0.0,96,0.00,,,0.01,Wunderground v.1.15,2013-03-23 11:40:00,
2013-03-23 07:41:00,71.8,70.6,29.91,South,178,0.0,0.0,96,0.00,,,0.01,Wunderground v.1.15,2013-03-23 11:41:00,
2013-03-23 07:42:00,71.8,70.6,29.91,SE,145,0.0,2.0,96,0.00,,,0.01,Wunderground v.1.15,2013-03-23 11:42:00,
2013-03-23 07:43:00,71.8,70.6,29.91,SE,146,0.0,2.0,96,0.00,,,0.01,Wunderground v.1.15,2013-03-23 11:43:00,
2013-03-23 07:45:00,71.8,70.6,29.91,NNW,337,0.0,2.0,96,0.00,,,0.01,Wunderground v.1.15,2013-03-23 11:45:00,
2013-03-23 07:46:00,71.8,70.9,29.91,NNW,337,1.0,2.0,97,0.00,,,0.01,Wunderground v.1.15,2013-03-23 11:46:00,
2013-03-23 07:48:00,71.9,71.0,29.91,NNW,336,0.0,2.0,97,0.00,,,0.01,Wunderground v.1.15,2013-03-23 11:48:00,
2013-03-23 07:50:00,71.9,71.0,29.91,NNW,336,1.0,1.0,97,0.00,,,0.01,Wunderground v.1.15,2013-03-23 11:50:00,
2013-03-23 07:52:00,71.9,71.0,29.91,NNW,336,0.0,1.0,97,0.00,,,0.01,Wunderground v.1.15,2013-03-23 11:52:00,
2013-03-23 07:53:00,72.0,70.8,29.91,NNW,336,0.0,1.0,96,0.00,,,0.01,Wunderground v.1.15,2013-03-23 11:53:00,
2013-03-23 07:55:00,72.0,71.1,29.91,NNW,336,0.0,1.0,97,0.00,,,0.01,Wunderground v.1.15,2013-03-23 11:55:00,
2013-03-23 07:58:00,72.1,71.2,29.91,NNW,338,0.0,2.0,97,0.00,,,0.01,Wunderground v.1.15,2013-03-23 11:58:00,
2013-03-23 08:00:00,72.2,71.3,29.91,NNW,338,0.0,0.0,97,0.00,,,0.01,Wunderground v.1.15,2013-03-23 12:00:00,
2013-03-23 08:03:00,72.3,71.4,29.91,NNW,338,0.0,1.0,97,0.00,,,0.01,Wunderground v.1.15,2013-03-23 12:03:00,
2013-03-23 08:04:00,72.3,71.4,29.91,NNW,338,0.0,1.0,97,0.00,,,0.01,Wunderground v.1.15,2013-03-23 12:04:00,
2013-03-23 08:06:00,72.3,71.4,29.91,NNW,338,0.0,1.0,97,0.00,,,0.01,Wunderground v.1.15,2013-03-23 12:06:00,
2013-03-23 08:08:00,72.4,71.5,29.92,SSW,205,2.0,2.0,97,0.00,,,0.01,Wunderground v.1.15,2013-03-23 12:08:00,
2013-03-23 08:09:00,72.4,71.5,29.92,SSW,205,0.0,2.0,97,0.00,,,0.01,Wunderground v.1.15,2013-03-23 12:09:00,
2013-03-23 08:11:00,72.5,71.6,29.91,South,185,0.0,1.0,97,0.00,,,0.01,Wunderground v.1.15,2013-03-23 12:11:00,
2013-03-23 08:14:00,72.6,71.7,29.91,South,184,0.0,3.0,97,0.00,,,0.01,Wunderground v.1.15,2013-03-23 12:14:00,
2013-03-23 08:15:00,72.6,71.7,29.92,South,183,0.0,3.0,97,0.00,,,0.01,Wunderground v.1.15,2013-03-23 12:15:00,
2013-03-23 08:17:00,72.7,71.8,29.92,South,182,0.0,3.0,97,0.00,,,0.01,Wunderground v.1.15,2013-03-23 12:17:00,
2013-03-23 08:19:00,72.8,71.9,29.92,South,174,1.0,4.0,97,0.00,,,0.01,Wunderground v.1.15,2013-03-23 12:19:00,
2013-03-23 08:21:00,72.9,72.0,29.91,South,171,0.0,2.0,97,0.00,,,0.01,Wunderground v.1.15,2013-03-23 12:21:00,
2013-03-23 08:22:00,73.0,72.1,29.92,South,171,0.0,3.0,97,0.00,,,0.01,Wunderground v.1.15,2013-03-23 12:22:00,
2013-03-23 08:24:00,73.1,72.2,29.91,South,171,0.0,5.0,97,0.00,,,0.01,Wunderground v.1.15,2013-03-23 12:24:00,
2013-03-23 08:27:00,73.2,72.3,29.91,South,173,1.0,5.0,97,0.00,,,0.01,Wunderground v.1.15,2013-03-23 12:27:00,
2013-03-23 08:29:00,73.3,72.4,29.92,South,182,0.0,7.0,97,0.00,,,0.01,Wunderground v.1.15,2013-03-23 12:29:00,
2013-03-23 08:30:00,73.4,72.5,29.92,South,182,2.0,7.0,97,0.00,,,0.01,Wunderground v.1.15,2013-03-23 12:30:00,
2013-03-23 08:32:00,73.5,72.6,29.92,South,182,1.0,5.0,97,0.00,,,0.01,Wunderground v.1.15,2013-03-23 12:32:00,
2013-03-23 08:35:00,73.7,72.8,29.92,South,177,5.0,6.0,97,0.00,,,0.01,Wunderground v.1.15,2013-03-23 12:35:00,
2013-03-23 08:37:00,73.8,72.9,29.92,South,178,0.0,6.0,97,0.00,,,0.01,Wunderground v.1.15,2013-03-23 12:37:00,
2013-03-23 08:40:00,74.0,72.8,29.92,SSE,163,0.0,6.0,96,0.00,,,0.01,Wunderground v.1.15,2013-03-23 12:40:00,
2013-03-23 08:42:00,74.2,73.0,29.93,South,173,1.0,6.0,96,0.00,,,0.01,Wunderground v.1.15,2013-03-23 12:42:00,
2013-03-23 08:43:00,74.2,73.0,29.93,South,171,0.0,6.0,96,0.00,,,0.01,Wunderground v.1.15,2013-03-23 12:43:00,
2013-03-23 08:45:00,74.4,73.2,29.92,South,180,0.0,6.0,96,0.00,,,0.01,Wunderground v.1.15,2013-03-23 12:45:00,
2013-03-23 08:47:00,74.6,73.4,29.92,South,173,6.0,7.0,96,0.00,,,0.01,Wunderground v.1.15,2013-03-23 12:47:00,
2013-03-23 08:48:00,74.6,73.4,29.92,South,179,5.0,7.0,96,0.00,,,0.01,Wunderground v.1.15,2013-03-23 12:48:00,
2013-03-23 08:50:00,74.7,73.5,29.92,South,173,3.0,3.0,96,0.00,,,0.01,Wunderground v.1.15,2013-03-23 12:50:00,
2013-03-23 08:53:00,74.9,73.7,29.93,South,171,0.0,3.0,96,0.00,,,0.01,Wunderground v.1.15,2013-03-23 12:53:00,
2013-03-23 08:55:00,75.1,73.9,29.93,South,190,4.0,6.0,96,0.00,,,0.01,Wunderground v.1.15,2013-03-23 12:55:00,
2013-03-23 08:58:00,75.2,73.7,29.93,South,187,0.0,6.0,95,0.00,,,0.01,Wunderground v.1.15,2013-03-23 12:58:00,
2013-03-23 09:00:00,75.3,73.8,29.93,South,175,0.0,4.0,95,0.00,,,0.01,Wunderground v.1.15,2013-03-23 13:00:00,
2013-03-23 09:01:00,75.4,73.9,29.93,South,175,0.0,4.0,95,0.00,,,0.01,Wunderground v.1.15,2013-03-23 13:01:00,
2013-03-23 09:03:00,75.6,74.1,29.93,SSW,213,0.0,6.0,95,0.00,,,0.01,Wunderground v.1.15,2013-03-23 13:03:00,
2013-03-23 09:05:00,75.7,74.2,29.93,South,171,1.0,7.0,95,0.00,,,0.01,Wunderground v.1.15,2013-03-23 13:05:00,
2013-03-23 09:06:00,75.7,74.2,29.93,South,173,4.0,7.0,95,0.00,,,0.01,Wunderground v.1.15,2013-03-23 13:06:00,
2013-03-23 09:08:00,75.7,73.8,29.93,South,182,5.0,7.0,94,0.00,,,0.01,Wunderground v.1.15,2013-03-23 13:08:00,
2013-03-23 09:09:00,75.7,73.8,29.93,South,186,1.0,7.0,94,0.00,,,0.01,Wunderground v.1.15,2013-03-23 13:09:00,
2013-03-23 09:11:00,75.8,73.9,29.93,South,185,8.0,8.0,94,0.00,,,0.01,Wunderground v.1.15,2013-03-23 13:11:00,
2013-03-23 09:12:00,75.8,73.9,29.93,SSW,200,4.0,8.0,94,0.00,,,0.01,Wunderground v.1.15,2013-03-23 13:12:00,
2013-03-23 09:13:00,75.9,74.0,29.93,SSE,168,1.0,8.0,94,0.00,,,0.01,Wunderground v.1.15,2013-03-23 13:13:00,
2013-03-23 09:16:00,76.0,74.1,29.93,South,174,5.0,8.0,94,0.00,,,0.01,Wunderground v.1.15,2013-03-23 13:16:00,
2013-03-23 09:18:00,76.1,74.2,29.93,SSW,196,4.0,8.0,94,0.00,,,0.01,Wunderground v.1.15,2013-03-23 13:18:00,
2013-03-23 09:19:00,76.1,74.2,29.93,South,174,7.0,8.0,94,0.00,,,0.01,Wunderground v.1.15,2013-03-23 13:19:00,
2013-03-23 09:21:00,76.2,74.3,29.93,SSW,201,2.0,5.0,94,0.00,,,0.01,Wunderground v.1.15,2013-03-23 13:21:00,
2013-03-23 09:23:00,76.4,74.5,29.93,South,183,2.0,6.0,94,0.00,,,0.01,Wunderground v.1.15,2013-03-23 13:23:00,
2013-03-23 09:24:00,76.5,74.3,29.93,SSW,202,0.0,6.0,93,0.00,,,0.01,Wunderground v.1.15,2013-03-23 13:24:00,
2013-03-23 09:27:00,76.6,74.4,29.93,South,170,1.0,9.0,93,0.00,,,0.01,Wunderground v.1.15,2013-03-23 13:27:00,
2013-03-23 09:28:00,76.7,74.5,29.93,South,173,1.0,9.0,93,0.00,,,0.01,Wunderground v.1.15,2013-03-23 13:28:00,
2013-03-23 09:29:00,76.8,74.6,29.93,SSE,167,5.0,9.0,93,0.00,,,0.01,Wunderground v.1.15,2013-03-23 13:29:00,
2013-03-23 09:32:00,77.1,74.6,29.93,South,182,0.0,5.0,92,0.00,,,0.01,Wunderground v.1.15,2013-03-23 13:32:00,
2013-03-23 09:33:00,77.2,74.7,29.93,South,182,0.0,5.0,92,0.00,,,0.01,Wunderground v.1.15,2013-03-23 13:33:00,
2013-03-23 09:35:00,77.4,74.9,29.93,South,170,0.0,5.0,92,0.00,,,0.01,Wunderground v.1.15,2013-03-23 13:35:00,
2013-03-23 09:37:00,77.7,74.9,29.93,SW,231,2.0,6.0,91,0.00,,,0.01,Wunderground v.1.15,2013-03-23 13:37:00,
2013-03-23 09:38:00,77.8,75.0,29.93,SSW,203,0.0,6.0,91,0.00,,,0.01,Wunderground v.1.15,2013-03-23 13:38:00,
2013-03-23 09:39:00,77.8,75.0,29.93,SSW,203,0.0,6.0,91,0.00,,,0.01,Wunderground v.1.15,2013-03-23 13:39:00,
2013-03-23 09:40:00,77.9,75.1,29.93,SSW,207,5.0,6.0,91,0.00,,,0.01,Wunderground v.1.15,2013-03-23 13:40:00,
2013-03-23 09:42:00,77.9,74.7,29.93,South,171,4.0,8.0,90,0.00,,,0.01,Wunderground v.1.15,2013-03-23 13:42:00,
2013-03-23 09:43:00,77.8,74.6,29.93,SSW,193,0.0,8.0,90,0.00,,,0.01,Wunderground v.1.15,2013-03-23 13:43:00,
2013-03-23 09:44:00,77.9,74.7,29.93,SSW,192,2.0,8.0,90,0.00,,,0.01,Wunderground v.1.15,2013-03-23 13:44:00,
2013-03-23 09:45:00,77.9,74.7,29.93,SSW,196,6.0,9.0,90,0.00,,,0.01,Wunderground v.1.15,2013-03-23 13:45:00,
2013-03-23 09:48:00,77.9,74.4,29.93,SSE,152,1.0,9.0,89,0.00,,,0.01,Wunderground v.1.15,2013-03-23 13:48:00,
2013-03-23 09:49:00,77.8,74.3,29.93,SSE,152,0.0,9.0,89,0.00,,,0.01,Wunderground v.1.15,2013-03-23 13:49:00,
2013-03-23 09:50:00,77.9,74.7,29.93,SSW,196,8.0,9.0,90,0.00,,,0.01,Wunderground v.1.15,2013-03-23 13:50:00,
2013-03-23 09:51:00,78.0,74.5,29.93,SSE,162,7.0,7.0,89,0.00,,,0.01,Wunderground v.1.15,2013-03-23 13:51:00,
2013-03-23 09:53:00,78.1,74.6,29.93,South,186,0.0,7.0,89,0.00,,,0.01,Wunderground v.1.15,2013-03-23 13:53:00,
2013-03-23 09:54:00,78.2,74.7,29.93,SSE,163,4.0,7.0,89,0.00,,,0.01,Wunderground v.1.15,2013-03-23 13:54:00,
2013-03-23 09:57:00,78.5,75.0,29.92,SSW,208,1.0,7.0,89,0.00,,,0.01,Wunderground v.1.15,2013-03-23 13:57:00,
2013-03-23 09:59:00,79.0,75.1,29.92,South,189,0.0,7.0,88,0.00,,,0.01,Wunderground v.1.15,2013-03-23 13:59:00,
2013-03-23 10:02:00,79.0,74.5,29.92,South,184,5.0,6.0,86,0.00,,,0.01,Wunderground v.1.15,2013-03-23 14:02:00,
2013-03-23 10:03:00,79.0,74.5,29.93,South,189,4.0,6.0,86,0.00,,,0.01,Wunderground v.1.15,2013-03-23 14:03:00,
2013-03-23 10:04:00,78.8,73.9,29.92,South,189,5.0,6.0,85,0.00,,,0.01,Wunderground v.1.15,2013-03-23 14:04:00,
2013-03-23 10:05:00,78.8,73.9,29.92,South,189,0.0,6.0,85,0.00,,,0.01,Wunderground v.1.15,2013-03-23 14:05:00,
2013-03-23 10:07:00,78.8,74.3,29.93,SSW,196,3.0,8.0,86,0.00,,,0.01,Wunderground v.1.15,2013-03-23 14:07:00,
2013-03-23 10:09:00,78.8,74.3,29.93,SSW,192,5.0,8.0,86,0.00,,,0.01,Wunderground v.1.15,2013-03-23 14:09:00,
2013-03-23 10:10:00,78.9,74.4,29.93,South,170,0.0,2.0,86,0.00,,,0.01,Wunderground v.1.15,2013-03-23 14:10:00,
2013-03-23 10:11:00,78.9,74.0,29.93,SSE,157,6.0,6.0,85,0.00,,,0.01,Wunderground v.1.15,2013-03-23 14:11:00,
2013-03-23 10:12:00,78.9,74.0,29.93,South,170,0.0,7.0,85,0.00,,,0.01,Wunderground v.1.15,2013-03-23 14:12:00,
2013-03-23 10:14:00,78.8,73.9,29.93,SSE,158,7.0,8.0,85,0.00,,,0.01,Wunderground v.1.15,2013-03-23 14:14:00,
2013-03-23 10:15:00,78.7,73.5,29.93,South,174,0.0,8.0,84,0.00,,,0.01,Wunderground v.1.15,2013-03-23 14:15:00,
2013-03-23 10:16:00,78.7,73.8,29.93,South,174,4.0,8.0,85,0.00,,,0.01,Wunderground v.1.15,2013-03-23 14:16:00,
2013-03-23 10:17:00,78.7,73.8,29.93,South,181,7.0,8.0,85,0.00,,,0.01,Wunderground v.1.15,2013-03-23 14:17:00,
2013-03-23 10:20:00,78.8,73.9,29.93,SSW,192,4.0,10.0,85,0.00,,,0.01,Wunderground v.1.15,2013-03-23 14:20:00,
2013-03-23 10:22:00,79.0,74.1,29.93,SSW,203,0.0,7.0,85,0.00,,,0.01,Wunderground v.1.15,2013-03-23 14:22:00,
2013-03-23 10:23:00,79.2,74.3,29.93,South,191,0.0,7.0,85,0.00,,,0.01,Wunderground v.1.15,2013-03-23 14:23:00,
2013-03-23 10:25:00,79.6,74.3,29.92,SSW,196,7.0,7.0,84,0.00,,,0.01,Wunderground v.1.15,2013-03-23 14:25:00,
2013-03-23 10:26:00,79.7,74.4,29.92,SSW,196,1.0,7.0,84,0.00,,,0.01,Wunderground v.1.15,2013-03-23 14:26:00,
2013-03-23 10:27:00,79.8,74.2,29.93,South,178,4.0,7.0,83,0.00,,,0.01,Wunderground v.1.15,2013-03-23 14:27:00,
2013-03-23 10:28:00,79.9,74.3,29.93,South,170,0.0,8.0,83,0.00,,,0.01,Wunderground v.1.15,2013-03-23 14:28:00,
2013-03-23 10:31:00,80.1,74.5,29.92,South,173,1.0,5.0,83,0.00,,,0.01,Wunderground v.1.15,2013-03-23 14:31:00,
2013-03-23 10:33:00,80.3,74.3,29.93,South,189,0.0,8.0,82,0.00,,,0.01,Wunderground v.1.15,2013-03-23 14:33:00,
2013-03-23 10:34:00,80.3,74.3,29.93,South,191,0.0,8.0,82,0.00,,,0.01,Wunderground v.1.15,2013-03-23 14:34:00,
2013-03-23 10:37:00,80.8,74.8,29.93,SW,223,2.0,8.0,82,0.00,,,0.01,Wunderground v.1.15,2013-03-23 14:37:00,
2013-03-23 10:38:00,81.0,74.6,29.92,South,178,0.0,8.0,81,0.00,,,0.01,Wunderground v.1.15,2013-03-23 14:38:00,
2013-03-23 10:39:00,81.0,74.2,29.92,South,178,5.0,8.0,80,0.00,,,0.01,Wunderground v.1.15,2013-03-23 14:39:00,
2013-03-23 10:40:00,81.0,74.2,29.92,South,169,6.0,8.0,80,0.00,,,0.01,Wunderground v.1.15,2013-03-23 14:40:00,
2013-03-23 10:42:00,80.8,74.0,29.92,SSW,209,0.0,6.0,80,0.00,,,0.01,Wunderground v.1.15,2013-03-23 14:42:00,
2013-03-23 10:43:00,80.7,74.0,29.92,SSE,153,1.0,10.0,80,0.00,,,0.01,Wunderground v.1.15,2013-03-23 14:43:00,
2013-03-23 10:44:00,80.5,73.8,29.92,South,176,7.0,10.0,80,0.00,,,0.01,Wunderground v.1.15,2013-03-23 14:44:00,
2013-03-23 10:45:00,80.5,73.8,29.92,South,178,0.0,10.0,80,0.00,,,0.01,Wunderground v.1.15,2013-03-23 14:45:00,
2013-03-23 10:47:00,80.6,73.9,29.92,South,170,0.0,10.0,80,0.00,,,0.01,Wunderground v.1.15,2013-03-23 14:47:00,
2013-03-23 10:49:00,80.7,74.0,29.92,SSW,192,2.0,10.0,80,0.00,,,0.01,Wunderground v.1.15,2013-03-23 14:49:00,
2013-03-23 10:50:00,80.9,74.1,29.92,SW,233,0.0,3.0,80,0.00,,,0.01,Wunderground v.1.15,2013-03-23 14:50:00,
2013-03-23 10:53:00,81.5,74.4,29.93,SE,145,0.0,5.0,79,0.00,,,0.01,Wunderground v.1.15,2013-03-23 14:53:00,
2013-03-23 10:54:00,81.5,74.0,29.93,South,169,4.0,5.0,78,0.00,,,0.01,Wunderground v.1.15,2013-03-23 14:54:00,
2013-03-23 10:55:00,81.4,74.3,29.92,SW,215,4.0,8.0,79,0.00,,,0.01,Wunderground v.1.15,2013-03-23 14:55:00,
2013-03-23 10:58:00,81.5,74.0,29.92,SSW,193,4.0,8.0,78,0.00,,,0.01,Wunderground v.1.15,2013-03-23 14:58:00,
2013-03-23 10:59:00,81.4,73.9,29.92,SSW,200,0.0,8.0,78,0.00,,,0.01,Wunderground v.1.15,2013-03-23 14:59:00,
2013-03-23 11:00:00,81.5,74.4,29.92,SSW,201,0.0,2.0,79,0.00,,,0.01,Wunderground v.1.15,2013-03-23 15:00:00,
2013-03-23 11:01:00,81.6,74.5,29.92,SSW,192,0.0,3.0,79,0.00,,,0.01,Wunderground v.1.15,2013-03-23 15:01:00,
2013-03-23 11:03:00,82.2,74.7,29.92,SW,232,5.0,5.0,78,0.00,,,0.01,Wunderground v.1.15,2013-03-23 15:03:00,
2013-03-23 11:04:00,82.3,74.7,29.92,South,169,4.0,5.0,78,0.00,,,0.01,Wunderground v.1.15,2013-03-23 15:04:00,
2013-03-23 11:05:00,82.5,74.2,29.92,SSE,168,0.0,5.0,76,0.00,,,0.01,Wunderground v.1.15,2013-03-23 15:05:00,
2013-03-23 11:07:00,82.4,74.1,29.92,South,170,4.0,5.0,76,0.00,,,0.01,Wunderground v.1.15,2013-03-23 15:07:00,
2013-03-23 11:09:00,82.3,74.0,29.92,South,171,4.0,5.0,76,0.00,,,0.01,Wunderground v.1.15,2013-03-23 15:09:00,
2013-03-23 11:10:00,82.2,73.5,29.92,SSW,199,6.0,6.0,75,0.00,,,0.01,Wunderground v.1.15,2013-03-23 15:10:00,
2013-03-23 11:12:00,82.1,73.4,29.92,SSW,205,5.0,6.0,75,0.00,,,0.01,Wunderground v.1.15,2013-03-23 15:12:00,
2013-03-23 11:14:00,82.3,74.0,29.92,South,189,3.0,7.0,76,0.00,,,0.01,Wunderground v.1.15,2013-03-23 15:14:00,
2013-03-23 11:16:00,82.3,74.0,29.92,SSE,163,5.0,7.0,76,0.00,,,0.01,Wunderground v.1.15,2013-03-23 15:16:00,
2013-03-23 11:18:00,82.3,73.6,29.92,SSE,162,5.0,7.0,75,0.00,,,0.01,Wunderground v.1.15,2013-03-23 15:18:00,
2013-03-23 11:19:00,82.2,73.1,29.92,South,169,0.0,7.0,74,0.00,,,0.01,Wunderground v.1.15,2013-03-23 15:19:00,
2013-03-23 11:22:00,82.7,74.8,29.92,South,173,0.0,3.0,77,0.00,,,0.01,Wunderground v.1.15,2013-03-23 15:22:00,
2013-03-23 11:23:00,83.1,73.9,29.92,WSW,238,2.0,4.0,74,0.00,,,0.01,Wunderground v.1.15,2013-03-23 15:23:00,
2013-03-23 11:24:00,83.2,74.0,29.92,South,187,1.0,9.0,74,0.00,,,0.01,Wunderground v.1.15,2013-03-23 15:24:00,
2013-03-23 11:27:00,82.8,73.3,29.92,South,172,4.0,9.0,73,0.00,,,0.01,Wunderground v.1.15,2013-03-23 15:27:00,
2013-03-23 11:29:00,82.8,73.3,29.92,South,188,3.0,9.0,73,0.00,,,0.01,Wunderground v.1.15,2013-03-23 15:29:00,
2013-03-23 11:32:00,82.7,73.2,29.91,South,170,0.0,8.0,73,0.00,,,0.01,Wunderground v.1.15,2013-03-23 15:32:00,
2013-03-23 11:34:00,82.5,72.6,29.91,South,188,7.0,11.0,72,0.00,,,0.01,Wunderground v.1.15,2013-03-23 15:34:00,
2013-03-23 11:35:00,82.4,73.3,29.91,South,173,5.0,11.0,74,0.00,,,0.01,Wunderground v.1.15,2013-03-23 15:35:00,
2013-03-23 11:37:00,82.4,73.3,29.91,SSE,150,6.0,11.0,74,0.00,,,0.01,Wunderground v.1.15,2013-03-23 15:37:00,
2013-03-23 11:39:00,82.3,72.8,29.91,South,170,1.0,11.0,73,0.00,,,0.01,Wunderground v.1.15,2013-03-23 15:39:00,
2013-03-23 11:40:00,82.4,73.7,29.91,South,177,3.0,5.0,75,0.00,,,0.01,Wunderground v.1.15,2013-03-23 15:40:00,
2013-03-23 11:43:00,82.6,73.5,29.91,South,188,2.0,6.0,74,0.00,,,0.01,Wunderground v.1.15,2013-03-23 15:43:00,
2013-03-23 11:44:00,82.8,73.7,29.91,South,190,0.0,6.0,74,0.00,,,0.01,Wunderground v.1.15,2013-03-23 15:44:00,
2013-03-23 11:45:00,83.5,74.3,29.91,South,182,0.0,6.0,74,0.00,,,0.01,Wunderground v.1.15,2013-03-23 15:45:00,
2013-03-23 11:47:00,83.7,73.3,29.91,SSW,196,1.0,6.0,71,0.00,,,0.01,Wunderground v.1.15,2013-03-23 15:47:00,
2013-03-23 11:48:00,83.7,73.3,29.91,South,173,0.0,6.0,71,0.00,,,0.01,Wunderground v.1.15,2013-03-23 15:48:00,
2013-03-23 11:49:00,83.8,73.4,29.91,South,169,0.0,6.0,71,0.00,,,0.01,Wunderground v.1.15,2013-03-23 15:49:00,
2013-03-23 11:50:00,83.8,73.4,29.91,SW,226,4.0,4.0,71,0.00,,,0.01,Wunderground v.1.15,2013-03-23 15:50:00,
2013-03-23 11:52:00,84.0,73.6,29.91,SSW,209,1.0,4.0,71,0.00,,,0.01,Wunderground v.1.15,2013-03-23 15:52:00,
2013-03-23 11:54:00,84.1,72.8,29.91,South,176,4.0,8.0,69,0.00,,,0.01,Wunderground v.1.15,2013-03-23 15:54:00,
2013-03-23 11:56:00,83.9,71.8,29.91,SW,215,5.0,9.0,67,0.00,,,0.01,Wunderground v.1.15,2013-03-23 15:56:00,
2013-03-23 11:57:00,84.0,73.2,29.91,South,187,0.0,9.0,70,0.00,,,0.01,Wunderground v.1.15,2013-03-23 15:57:00,
2013-03-23 11:59:00,84.3,73.4,29.91,SSW,196,0.0,9.0,70,0.00,,,0.01,Wunderground v.1.15,2013-03-23 15:59:00,
2013-03-23 12:01:00,84.3,72.6,29.91,SSE,153,0.0,5.0,68,0.00,,,0.01,Wunderground v.1.15,2013-03-23 16:01:00,
2013-03-23 12:03:00,84.3,72.6,29.91,SW,218,0.0,5.0,68,0.00,,,0.01,Wunderground v.1.15,2013-03-23 16:03:00,
2013-03-23 12:04:00,84.5,74.1,29.91,South,187,2.0,5.0,71,0.00,,,0.01,Wunderground v.1.15,2013-03-23 16:04:00,
2013-03-23 12:06:00,84.6,72.9,29.91,WSW,242,6.0,6.0,68,0.00,,,0.01,Wunderground v.1.15,2013-03-23 16:06:00,
2013-03-23 12:07:00,84.7,73.0,29.91,SSE,154,1.0,6.0,68,0.00,,,0.01,Wunderground v.1.15,2013-03-23 16:07:00,
2013-03-23 12:08:00,84.6,72.0,29.91,South,187,4.0,8.0,66,0.00,,,0.01,Wunderground v.1.15,2013-03-23 16:08:00,
2013-03-23 12:10:00,84.2,72.0,29.90,South,180,0.0,10.0,67,0.00,,,0.01,Wunderground v.1.15,2013-03-23 16:10:00,
2013-03-23 12:12:00,84.5,72.8,29.90,SSW,211,0.0,3.0,68,0.00,,,0.01,Wunderground v.1.15,2013-03-23 16:12:00,
2013-03-23 12:13:00,84.7,73.0,29.90,SSW,212,0.0,3.0,68,0.00,,,0.01,Wunderground v.1.15,2013-03-23 16:13:00,
2013-03-23 12:16:00,84.5,72.3,29.90,South,190,1.0,8.0,67,0.00,,,0.01,Wunderground v.1.15,2013-03-23 16:16:00,
2013-03-23 12:17:00,84.5,72.3,29.90,SSW,192,0.0,8.0,67,0.00,,,0.01,Wunderground v.1.15,2013-03-23 16:17:00,
2013-03-23 12:18:00,84.4,72.7,29.90,SSE,166,5.0,8.0,68,0.00,,,0.01,Wunderground v.1.15,2013-03-23 16:18:00,
2013-03-23 12:22:00,83.8,72.1,29.90,SSE,153,4.0,6.0,68,0.00,,,0.01,Wunderground v.1.15,2013-03-23 16:22:00,
2013-03-23 12:23:00,83.7,72.0,29.90,SSW,205,0.0,8.0,68,0.00,,,0.01,Wunderground v.1.15,2013-03-23 16:23:00,
2013-03-23 12:27:00,84.7,73.8,29.90,SW,229,2.0,8.0,70,0.00,,,0.01,Wunderground v.1.15,2013-03-23 16:27:00,
2013-03-23 12:28:00,84.9,73.6,29.90,West,265,5.0,8.0,69,0.00,,,0.01,Wunderground v.1.15,2013-03-23 16:28:00,
2013-03-23 12:32:00,85.2,72.1,29.90,South,183,6.0,8.0,65,0.00,,,0.01,Wunderground v.1.15,2013-03-23 16:32:00,
2013-03-23 12:33:00,85.2,72.1,29.90,South,184,1.0,8.0,65,0.00,,,0.01,Wunderground v.1.15,2013-03-23 16:33:00,
2013-03-23 12:34:00,85.0,71.9,29.89,SSE,153,7.0,8.0,65,0.00,,,0.01,Wunderground v.1.15,2013-03-23 16:34:00,
2013-03-23 12:38:00,84.5,71.4,29.89,South,171,2.0,8.0,65,0.00,,,0.01,Wunderground v.1.15,2013-03-23 16:38:00,
2013-03-23 12:39:00,84.4,71.8,29.89,SSW,192,1.0,8.0,66,0.00,,,0.01,Wunderground v.1.15,2013-03-23 16:39:00,
2013-03-23 12:40:00,84.5,72.3,29.89,South,181,4.0,9.0,67,0.00,,,0.01,Wunderground v.1.15,2013-03-23 16:40:00,
2013-03-23 13:00:00,84.7,72.5,29.87,SE,129,0.0,6.0,67,0.00,,,0.01,Wunderground v.1.15,2013-03-23 17:00:00,
2013-03-23 13:01:00,84.7,72.5,29.87,SE,136,0.0,1.0,67,0.00,,,0.01,Wunderground v.1.15,2013-03-23 17:01:00,
2013-03-23 13:05:00,84.8,72.6,29.87,South,174,0.0,9.0,67,0.00,,,0.01,Wunderground v.1.15,2013-03-23 17:05:00,
2013-03-23 13:06:00,84.9,72.7,29.87,SW,214,3.0,9.0,67,0.00,,,0.01,Wunderground v.1.15,2013-03-23 17:06:00,
2013-03-23 13:10:00,85.4,72.7,29.87,South,173,6.0,9.0,66,0.00,,,0.01,Wunderground v.1.15,2013-03-23 17:10:00,
2013-03-23 13:11:00,85.0,72.8,29.87,SSE,166,2.0,5.0,67,0.00,,,0.01,Wunderground v.1.15,2013-03-23 17:11:00,
2013-03-23 13:15:00,84.0,71.9,29.87,SSE,167,0.0,5.0,67,0.00,,,0.01,Wunderground v.1.15,2013-03-23 17:15:00,
2013-03-23 13:16:00,83.7,72.0,29.87,South,175,0.0,5.0,68,0.00,,,0.01,Wunderground v.1.15,2013-03-23 17:16:00,
2013-03-23 13:17:00,83.7,72.0,29.87,South,174,1.0,5.0,68,0.00,,,0.01,Wunderground v.1.15,2013-03-23 17:17:00,
2013-03-23 13:21:00,83.7,72.0,29.87,WSW,246,2.0,5.0,68,0.00,,,0.01,Wunderground v.1.15,2013-03-23 17:21:00,
2013-03-23 13:22:00,83.7,72.0,29.87,SW,224,0.0,5.0,68,0.00,,,0.01,Wunderground v.1.15,2013-03-23 17:22:00,
2013-03-23 13:23:00,83.8,72.1,29.86,SW,223,0.0,5.0,68,0.00,,,0.01,Wunderground v.1.15,2013-03-23 17:23:00,
2013-03-23 13:27:00,84.5,73.6,29.86,SW,228,0.0,5.0,70,0.00,,,0.01,Wunderground v.1.15,2013-03-23 17:27:00,
2013-03-23 13:28:00,84.6,73.7,29.86,SE,132,8.0,11.0,70,0.00,,,0.01,Wunderground v.1.15,2013-03-23 17:28:00,
2013-03-23 13:32:00,84.3,73.0,29.86,SSW,202,2.0,9.0,69,0.00,,,0.01,Wunderground v.1.15,2013-03-23 17:32:00,
2013-03-23 13:33:00,84.2,72.9,29.86,SSE,161,7.0,9.0,69,0.00,,,0.01,Wunderground v.1.15,2013-03-23 17:33:00,
2013-03-23 13:38:00,84.1,73.7,29.85,SSE,168,4.0,9.0,71,0.00,,,0.01,Wunderground v.1.15,2013-03-23 17:38:00,
2013-03-23 13:39:00,84.2,73.8,29.85,SSE,161,7.0,10.0,71,0.00,,,0.01,Wunderground v.1.15,2013-03-23 17:39:00,
2013-03-23 13:43:00,84.1,73.3,29.85,South,188,7.0,11.0,70,0.00,,,0.01,Wunderground v.1.15,2013-03-23 17:43:00,
2013-03-23 13:44:00,84.2,73.8,29.85,South,186,8.0,11.0,71,0.00,,,0.01,Wunderground v.1.15,2013-03-23 17:44:00,
2013-03-23 13:47:00,84.3,73.9,29.85,SE,132,4.0,11.0,71,0.00,,,0.01,Wunderground v.1.15,2013-03-23 17:47:00,
2013-03-23 13:48:00,84.3,73.4,29.85,SSE,151,1.0,11.0,70,0.00,,,0.01,Wunderground v.1.15,2013-03-23 17:48:00,
2013-03-23 13:49:00,84.3,73.4,29.85,SE,143,9.0,11.0,70,0.00,,,0.01,Wunderground v.1.15,2013-03-23 17:49:00,
2013-03-23 13:52:00,84.3,74.3,29.85,SSW,195,3.0,9.0,72,0.00,,,0.01,Wunderground v.1.15,2013-03-23 17:52:00,
2013-03-23 13:54:00,84.7,74.3,29.85,SSE,161,5.0,10.0,71,0.00,,,0.01,Wunderground v.1.15,2013-03-23 17:54:00,
2013-03-23 13:55:00,84.8,73.1,29.85,SSW,200,5.0,10.0,68,0.00,,,0.01,Wunderground v.1.15,2013-03-23 17:55:00,
2013-03-23 13:57:00,84.6,72.4,29.85,ESE,119,6.0,10.0,67,0.00,,,0.01,Wunderground v.1.15,2013-03-23 17:57:00,
2013-03-23 13:59:00,84.4,72.7,29.85,SE,145,6.0,10.0,68,0.00,,,0.01,Wunderground v.1.15,2013-03-23 17:59:00,
2013-03-23 14:00:00,84.3,72.1,29.85,South,173,4.0,10.0,67,0.00,,,0.01,Wunderground v.1.15,2013-03-23 18:00:00,
2013-03-23 14:03:00,84.4,72.2,29.85,South,171,4.0,7.0,67,0.00,,,0.01,Wunderground v.1.15,2013-03-23 18:03:00,
2013-03-23 14:04:00,84.2,72.0,29.85,SSE,159,6.0,7.0,67,0.00,,,0.01,Wunderground v.1.15,2013-03-23 18:04:00,
2013-03-23 14:05:00,84.1,72.0,29.85,SE,142,7.0,7.0,67,0.00,,,0.01,Wunderground v.1.15,2013-03-23 18:05:00,
2013-03-23 14:08:00,84.1,72.0,29.85,SE,139,4.0,9.0,67,0.00,,,0.01,Wunderground v.1.15,2013-03-23 18:08:00,
2013-03-23 14:09:00,84.2,72.0,29.85,SSE,161,5.0,9.0,67,0.00,,,0.01,Wunderground v.1.15,2013-03-23 18:09:00,
2013-03-23 14:10:00,84.1,71.5,29.85,SSE,157,3.0,5.0,66,0.00,,,0.01,Wunderground v.1.15,2013-03-23 18:10:00,
2013-03-23 14:11:00,84.2,71.6,29.85,SSE,153,8.0,9.0,66,0.00,,,0.01,Wunderground v.1.15,2013-03-23 18:11:00,
2013-03-23 14:13:00,84.2,72.0,29.84,SSE,147,6.0,11.0,67,0.00,,,0.01,Wunderground v.1.15,2013-03-23 18:13:00,
2013-03-23 14:15:00,84.2,71.6,29.84,SSE,165,10.0,11.0,66,0.00,,,0.01,Wunderground v.1.15,2013-03-23 18:15:00,
2013-03-23 14:17:00,84.1,72.0,29.84,SSE,165,8.0,15.0,67,0.00,,,0.01,Wunderground v.1.15,2013-03-23 18:17:00,
2013-03-23 14:19:00,84.0,71.9,29.84,SSE,157,10.0,15.0,67,0.00,,,0.01,Wunderground v.1.15,2013-03-23 18:19:00,
2013-03-23 14:20:00,83.9,71.8,29.84,SE,138,7.0,8.0,67,0.00,,,0.01,Wunderground v.1.15,2013-03-23 18:20:00,
2013-03-23 14:22:00,83.8,71.7,29.84,South,172,1.0,10.0,67,0.00,,,0.01,Wunderground v.1.15,2013-03-23 18:22:00,
2013-03-23 14:24:00,84.2,72.9,29.84,SSE,156,6.0,10.0,69,0.00,,,0.01,Wunderground v.1.15,2013-03-23 18:24:00,
2013-03-23 14:25:00,84.3,72.6,29.84,SSE,164,5.0,11.0,68,0.00,,,0.01,Wunderground v.1.15,2013-03-23 18:25:00,
2013-03-23 14:26:00,84.3,72.1,29.84,SSE,163,1.0,11.0,67,0.00,,,0.01,Wunderground v.1.15,2013-03-23 18:26:00,
2013-03-23 14:28:00,84.3,72.1,29.84,SSW,210,1.0,11.0,67,0.00,,,0.01,Wunderground v.1.15,2013-03-23 18:28:00,
2013-03-23 14:29:00,84.2,72.0,29.84,SSE,168,0.0,11.0,67,0.00,,,0.01,Wunderground v.1.15,2013-03-23 18:29:00,
2013-03-23 14:30:00,84.2,72.0,29.84,South,190,6.0,6.0,67,0.00,,,0.01,Wunderground v.1.15,2013-03-23 18:30:00,
2013-03-23 14:32:00,84.1,72.0,29.84,South,172,1.0,6.0,67,0.00,,,0.01,Wunderground v.1.15,2013-03-23 18:32:00,
2013-03-23 14:33:00,84.1,72.0,29.84,SSE,157,6.0,8.0,67,0.00,,,0.01,Wunderground v.1.15,2013-03-23 18:33:00,
2013-03-23 14:34:00,84.0,71.9,29.84,South,173,3.0,10.0,67,0.00,,,0.01,Wunderground v.1.15,2013-03-23 18:34:00,
2013-03-23 14:36:00,83.9,71.8,29.84,SSE,161,6.0,10.0,67,0.00,,,0.01,Wunderground v.1.15,2013-03-23 18:36:00,
2013-03-23 14:37:00,83.9,72.2,29.84,ESE,123,0.0,10.0,68,0.00,,,0.01,Wunderground v.1.15,2013-03-23 18:37:00,
2013-03-23 14:38:00,83.9,72.2,29.84,SE,126,2.0,10.0,68,0.00,,,0.01,Wunderground v.1.15,2013-03-23 18:38:00,
2013-03-23 14:39:00,84.1,72.8,29.84,South,185,7.0,10.0,69,0.00,,,0.01,Wunderground v.1.15,2013-03-23 18:39:00,
2013-03-23 14:42:00,84.4,72.7,29.84,SSE,161,3.0,10.0,68,0.00,,,0.01,Wunderground v.1.15,2013-03-23 18:42:00,
2013-03-23 14:43:00,84.4,72.2,29.84,South,169,5.0,10.0,67,0.00,,,0.01,Wunderground v.1.15,2013-03-23 18:43:00,
2013-03-23 14:44:00,84.4,72.2,29.84,SSE,163,4.0,10.0,67,0.00,,,0.01,Wunderground v.1.15,2013-03-23 18:44:00,
2013-03-23 14:47:00,84.0,71.9,29.84,SSE,163,10.0,12.0,67,0.00,,,0.01,Wunderground v.1.15,2013-03-23 18:47:00,
2013-03-23 14:49:00,83.8,72.1,29.83,SSE,157,7.0,12.0,68,0.00,,,0.01,Wunderground v.1.15,2013-03-23 18:49:00,
2013-03-23 14:50:00,83.8,71.7,29.84,South,174,5.0,12.0,67,0.00,,,0.01,Wunderground v.1.15,2013-03-23 18:50:00,
2013-03-23 14:52:00,84.0,72.3,29.83,SE,142,5.0,6.0,68,0.00,,,0.01,Wunderground v.1.15,2013-03-23 18:52:00,
2013-03-23 14:53:00,84.2,72.0,29.83,SE,134,6.0,10.0,67,0.00,,,0.01,Wunderground v.1.15,2013-03-23 18:53:00,
2013-03-23 14:55:00,84.1,72.0,29.83,SE,132,9.0,10.0,67,0.00,,,0.01,Wunderground v.1.15,2013-03-23 18:55:00,
2013-03-23 14:56:00,84.0,71.9,29.83,SE,131,10.0,11.0,67,0.00,,,0.01,Wunderground v.1.15,2013-03-23 18:56:00,
2013-03-23 14:57:00,84.0,71.9,29.83,South,178,0.0,11.0,67,0.00,,,0.01,Wunderground v.1.15,2013-03-23 18:57:00,
2013-03-23 14:58:00,84.0,72.3,29.83,South,181,6.0,11.0,68,0.00,,,0.01,Wunderground v.1.15,2013-03-23 18:58:00,
2013-03-23 15:01:00,84.1,72.4,29.83,SE,146,7.0,7.0,68,0.00,,,0.01,Wunderground v.1.15,2013-03-23 19:01:00,
2013-03-23 15:02:00,83.9,71.8,29.83,SSE,165,5.0,9.0,67,0.00,,,0.01,Wunderground v.1.15,2013-03-23 19:02:00,
2013-03-23 15:03:00,83.9,72.2,29.83,SSE,167,5.0,9.0,68,0.00,,,0.01,Wunderground v.1.15,2013-03-23 19:03:00,
2013-03-23 15:04:00,83.9,72.2,29.83,SE,141,1.0,9.0,68,0.00,,,0.01,Wunderground v.1.15,2013-03-23 19:04:00,
2013-03-23 15:06:00,84.2,72.0,29.83,South,185,5.0,9.0,67,0.00,,,0.01,Wunderground v.1.15,2013-03-23 19:06:00,
2013-03-23 15:08:00,84.5,72.3,29.83,South,172,2.0,9.0,67,0.00,,,0.01,Wunderground v.1.15,2013-03-23 19:08:00,
2013-03-23 15:09:00,84.7,72.5,29.83,SSW,193,3.0,9.0,67,0.00,,,0.01,Wunderground v.1.15,2013-03-23 19:09:00,
2013-03-23 15:11:00,84.9,72.3,29.83,SSW,198,5.0,9.0,66,0.00,,,0.01,Wunderground v.1.15,2013-03-23 19:11:00,
2013-03-23 15:13:00,84.9,71.8,29.82,SW,225,7.0,11.0,65,0.00,,,0.01,Wunderground v.1.15,2013-03-23 19:13:00,
2013-03-23 15:14:00,84.8,71.7,29.82,SSW,198,1.0,11.0,65,0.00,,,0.01,Wunderground v.1.15,2013-03-23 19:14:00,
2013-03-23 15:16:00,84.7,72.1,29.82,South,170,0.0,11.0,66,0.00,,,0.01,Wunderground v.1.15,2013-03-23 19:16:00,
2013-03-23 15:18:00,84.9,72.3,29.82,South,190,5.0,11.0,66,0.00,,,0.01,Wunderground v.1.15,2013-03-23 19:18:00,
2013-03-23 15:19:00,85.0,72.4,29.82,South,188,0.0,11.0,66,0.00,,,0.01,Wunderground v.1.15,2013-03-23 19:19:00,
2013-03-23 15:21:00,85.4,72.7,29.82,South,188,7.0,8.0,66,0.00,,,0.01,Wunderground v.1.15,2013-03-23 19:21:00,
2013-03-23 15:24:00,85.1,72.0,29.82,South,170,3.0,11.0,65,0.00,,,0.01,Wunderground v.1.15,2013-03-23 19:24:00,
2013-03-23 15:27:00,84.9,72.3,29.82,SW,214,1.0,11.0,66,0.00,,,0.01,Wunderground v.1.15,2013-03-23 19:27:00,
2013-03-23 15:29:00,85.4,73.2,29.82,South,171,1.0,11.0,67,0.00,,,0.01,Wunderground v.1.15,2013-03-23 19:29:00,
2013-03-23 15:30:00,85.5,72.8,29.82,South,178,9.0,9.0,66,0.00,,,0.01,Wunderground v.1.15,2013-03-23 19:30:00,
2013-03-23 15:32:00,85.4,72.3,29.82,SSE,148,6.0,9.0,65,0.00,,,0.01,Wunderground v.1.15,2013-03-23 19:32:00,
2013-03-23 15:34:00,85.3,72.2,29.81,SSE,159,3.0,9.0,65,0.00,,,0.01,Wunderground v.1.15,2013-03-23 19:34:00,
2013-03-23 15:35:00,85.2,72.1,29.81,South,176,0.0,9.0,65,0.00,,,0.01,Wunderground v.1.15,2013-03-23 19:35:00,
2013-03-23 15:36:00,85.2,73.0,29.81,SSW,194,10.0,12.0,67,0.00,,,0.01,Wunderground v.1.15,2013-03-23 19:36:00,
2013-03-23 15:37:00,85.2,72.1,29.81,South,172,6.0,12.0,65,0.00,,,0.01,Wunderground v.1.15,2013-03-23 19:37:00,
2013-03-23 15:39:00,85.1,72.5,29.81,SSE,168,8.0,12.0,66,0.00,,,0.01,Wunderground v.1.15,2013-03-23 19:39:00,
2013-03-23 15:41:00,85.2,72.1,29.81,South,191,9.0,10.0,65,0.00,,,0.01,Wunderground v.1.15,2013-03-23 19:41:00,
2013-03-23 15:42:00,85.2,72.1,29.81,SSE,166,8.0,11.0,65,0.00,,,0.01,Wunderground v.1.15,2013-03-23 19:42:00,
2013-03-23 15:44:00,85.2,72.1,29.81,SSE,166,6.0,11.0,65,0.00,,,0.01,Wunderground v.1.15,2013-03-23 19:44:00,
2013-03-23 15:46:00,85.2,72.1,29.80,SE,139,3.0,11.0,65,0.00,,,0.01,Wunderground v.1.15,2013-03-23 19:46:00,
2013-03-23 15:47:00,85.2,72.1,29.81,SE,140,0.0,11.0,65,0.00,,,0.01,Wunderground v.1.15,2013-03-23 19:47:00,
2013-03-23 15:50:00,85.4,72.7,29.80,SSE,160,11.0,12.0,66,0.00,,,0.01,Wunderground v.1.15,2013-03-23 19:50:00,
2013-03-23 15:51:00,85.5,72.4,29.80,South,181,7.0,12.0,65,0.00,,,0.01,Wunderground v.1.15,2013-03-23 19:51:00,
2013-03-23 15:52:00,85.5,72.4,29.80,SSW,207,2.0,12.0,65,0.00,,,0.01,Wunderground v.1.15,2013-03-23 19:52:00,
2013-03-23 15:53:00,85.5,72.4,29.80,South,175,2.0,12.0,65,0.00,,,0.01,Wunderground v.1.15,2013-03-23 19:53:00,
2013-03-23 15:55:00,85.5,71.9,29.80,SE,142,6.0,12.0,64,0.00,,,0.01,Wunderground v.1.15,2013-03-23 19:55:00,
2013-03-23 15:57:00,85.3,71.7,29.80,SSE,166,2.0,12.0,64,0.00,,,0.01,Wunderground v.1.15,2013-03-23 19:57:00,
2013-03-23 15:58:00,85.1,72.0,29.80,SSE,168,0.0,12.0,65,0.00,,,0.01,Wunderground v.1.15,2013-03-23 19:58:00,
2013-03-23 16:00:00,85.0,71.9,29.80,SSW,192,1.0,4.0,65,0.00,,,0.01,Wunderground v.1.15,2013-03-23 20:00:00,
2013-03-23 16:02:00,85.1,72.5,29.80,SSE,163,4.0,8.0,66,0.00,,,0.01,Wunderground v.1.15,2013-03-23 20:02:00,
2013-03-23 16:03:00,85.3,72.2,29.80,SE,146,8.0,8.0,65,0.00,,,0.01,Wunderground v.1.15,2013-03-23 20:03:00,
2013-03-23 16:05:00,85.3,71.7,29.80,South,175,8.0,11.0,64,0.00,,,0.01,Wunderground v.1.15,2013-03-23 20:05:00,
2013-03-23 16:07:00,85.1,71.5,29.80,SSE,168,6.0,11.0,64,0.00,,,0.01,Wunderground v.1.15,2013-03-23 20:07:00,
2013-03-23 16:08:00,85.1,72.5,29.80,SE,143,5.0,11.0,66,0.00,,,0.01,Wunderground v.1.15,2013-03-23 20:08:00,
2013-03-23 16:10:00,85.2,71.6,29.80,South,170,1.0,5.0,64,0.00,,,0.01,Wunderground v.1.15,2013-03-23 20:10:00,
2013-03-23 16:12:00,85.1,71.5,29.80,SE,134,6.0,6.0,64,0.00,,,0.01,Wunderground v.1.15,2013-03-23 20:12:00,
2013-03-23 16:13:00,85.0,71.5,29.80,South,170,5.0,6.0,64,0.00,,,0.01,Wunderground v.1.15,2013-03-23 20:13:00,
2013-03-23 16:14:00,84.9,71.8,29.80,SSE,163,8.0,8.0,65,0.00,,,0.01,Wunderground v.1.15,2013-03-23 20:14:00,
2013-03-23 16:17:00,85.0,71.5,29.80,SSE,153,6.0,8.0,64,0.00,,,0.01,Wunderground v.1.15,2013-03-23 20:17:00,
2013-03-23 16:18:00,84.9,71.4,29.80,SSE,155,3.0,8.0,64,0.00,,,0.01,Wunderground v.1.15,2013-03-23 20:18:00,
2013-03-23 16:19:00,84.9,71.4,29.80,South,178,10.0,12.0,64,0.00,,,0.01,Wunderground v.1.15,2013-03-23 20:19:00,
2013-03-23 16:22:00,84.9,71.8,29.80,SE,137,7.0,8.0,65,0.00,,,0.01,Wunderground v.1.15,2013-03-23 20:22:00,
2013-03-23 16:23:00,84.9,71.8,29.79,SSE,150,1.0,9.0,65,0.00,,,0.01,Wunderground v.1.15,2013-03-23 20:23:00,
2013-03-23 16:25:00,84.9,72.3,29.79,SSE,155,9.0,9.0,66,0.00,,,0.01,Wunderground v.1.15,2013-03-23 20:25:00,
2013-03-23 16:27:00,85.0,71.9,29.79,SSW,197,2.0,12.0,65,0.00,,,0.01,Wunderground v.1.15,2013-03-23 20:27:00,
2013-03-23 16:28:00,85.0,72.4,29.79,SSE,164,5.0,12.0,66,0.00,,,0.01,Wunderground v.1.15,2013-03-23 20:28:00,
2013-03-23 16:29:00,85.0,72.4,29.79,SSE,163,1.0,12.0,66,0.00,,,0.01,Wunderground v.1.15,2013-03-23 20:29:00,
2013-03-23 16:30:00,85.0,72.4,29.79,SSE,160,0.0,5.0,66,0.00,,,0.01,Wunderground v.1.15,2013-03-23 20:30:00,
2013-03-23 16:32:00,84.9,72.3,29.79,SE,138,7.0,9.0,66,0.00,,,0.01,Wunderground v.1.15,2013-03-23 20:32:00,
2013-03-23 16:34:00,84.9,72.3,29.79,SE,146,5.0,13.0,66,0.00,,,0.01,Wunderground v.1.15,2013-03-23 20:34:00,
2013-03-23 16:37:00,84.9,72.3,29.79,SSE,163,9.0,13.0,66,0.00,,,0.01,Wunderground v.1.15,2013-03-23 20:37:00,
2013-03-23 16:39:00,85.2,72.6,29.79,South,186,0.0,13.0,66,0.00,,,0.01,Wunderground v.1.15,2013-03-23 20:39:00,
2013-03-23 16:42:00,85.7,73.0,29.79,SSE,164,0.0,9.0,66,0.00,,,0.01,Wunderground v.1.15,2013-03-23 20:42:00,
2013-03-23 16:44:00,85.7,72.6,29.79,SE,146,8.0,9.0,65,0.00,,,0.01,Wunderground v.1.15,2013-03-23 20:44:00,
2013-03-23 16:48:00,85.3,73.1,29.79,SSE,163,5.0,12.0,67,0.00,,,0.01,Wunderground v.1.15,2013-03-23 20:48:00,
2013-03-23 16:49:00,85.2,73.0,29.79,SSE,155,9.0,12.0,67,0.00,,,0.01,Wunderground v.1.15,2013-03-23 20:49:00,
2013-03-23 16:51:00,85.0,72.8,29.79,SSE,150,2.0,5.0,67,0.00,,,0.01,Wunderground v.1.15,2013-03-23 20:51:00,
2013-03-23 16:53:00,84.7,73.0,29.79,SSE,152,6.0,11.0,68,0.00,,,0.01,Wunderground v.1.15,2013-03-23 20:53:00,
2013-03-23 16:54:00,84.6,72.9,29.79,SE,138,1.0,11.0,68,0.00,,,0.01,Wunderground v.1.15,2013-03-23 20:54:00,
2013-03-23 16:56:00,84.4,73.1,29.79,SSE,150,0.0,11.0,69,0.00,,,0.01,Wunderground v.1.15,2013-03-23 20:56:00,
2013-03-23 16:59:00,84.2,72.9,29.79,South,173,0.0,11.0,69,0.00,,,0.01,Wunderground v.1.15,2013-03-23 20:59:00,
2013-03-23 17:00:00,84.3,73.4,29.79,SW,221,10.0,11.0,70,0.00,,,0.01,Wunderground v.1.15,2013-03-23 21:00:00,
2013-03-23 17:01:00,84.3,73.0,29.79,SSW,213,8.0,10.0,69,0.00,,,0.01,Wunderground v.1.15,2013-03-23 21:01:00,
2013-03-23 17:04:00,84.4,73.1,29.78,SSE,168,0.0,10.0,69,0.00,,,0.01,Wunderground v.1.15,2013-03-23 21:04:00,
2013-03-23 17:06:00,84.3,73.0,29.78,SSE,163,5.0,10.0,69,0.00,,,0.01,Wunderground v.1.15,2013-03-23 21:06:00,
2013-03-23 17:09:00,84.2,73.3,29.78,SSE,154,4.0,10.0,70,0.00,,,0.01,Wunderground v.1.15,2013-03-23 21:09:00,
2013-03-23 17:10:00,84.2,73.3,29.78,South,169,6.0,10.0,70,0.00,,,0.01,Wunderground v.1.15,2013-03-23 21:10:00,
2013-03-23 17:11:00,84.2,73.3,29.78,SSE,166,7.0,9.0,70,0.00,,,0.01,Wunderground v.1.15,2013-03-23 21:11:00,
2013-03-23 17:12:00,84.1,73.3,29.78,SSE,158,8.0,9.0,70,0.00,,,0.01,Wunderground v.1.15,2013-03-23 21:12:00,
2013-03-23 17:15:00,84.0,73.6,29.78,SSW,196,11.0,16.0,71,0.00,,,0.01,Wunderground v.1.15,2013-03-23 21:15:00,
2013-03-23 17:16:00,84.0,73.6,29.78,SSE,155,6.0,16.0,71,0.00,,,0.01,Wunderground v.1.15,2013-03-23 21:16:00,
2013-03-23 17:17:00,84.0,73.6,29.78,South,170,1.0,16.0,71,0.00,,,0.01,Wunderground v.1.15,2013-03-23 21:17:00,
2013-03-23 17:20:00,83.9,73.5,29.78,SSE,155,8.0,16.0,71,0.00,,,0.01,Wunderground v.1.15,2013-03-23 21:20:00,
2013-03-23 17:21:00,83.8,73.4,29.78,South,184,9.0,10.0,71,0.00,,,0.01,Wunderground v.1.15,2013-03-23 21:21:00,
2013-03-23 17:22:00,83.7,73.3,29.78,SSE,160,8.0,10.0,71,0.00,,,0.01,Wunderground v.1.15,2013-03-23 21:22:00,
2013-03-23 17:26:00,83.6,73.6,29.78,South,191,0.0,10.0,72,0.00,,,0.01,Wunderground v.1.15,2013-03-23 21:26:00,
2013-03-23 17:27:00,83.7,73.3,29.78,SSE,148,7.0,10.0,71,0.00,,,0.01,Wunderground v.1.15,2013-03-23 21:27:00,
2013-03-23 17:31:00,83.7,73.3,29.78,South,183,4.0,14.0,71,0.00,,,0.01,Wunderground v.1.15,2013-03-23 21:31:00,
2013-03-23 17:32:00,83.7,72.9,29.78,South,186,8.0,14.0,70,0.00,,,0.01,Wunderground v.1.15,2013-03-23 21:32:00,
2013-03-23 17:36:00,83.6,73.6,29.78,SSE,154,4.0,14.0,72,0.00,,,0.01,Wunderground v.1.15,2013-03-23 21:36:00,
2013-03-23 17:37:00,83.6,73.6,29.78,SSE,151,6.0,14.0,72,0.00,,,0.01,Wunderground v.1.15,2013-03-23 21:37:00,
2013-03-23 17:38:00,83.6,73.2,29.78,SSE,155,6.0,14.0,71,0.00,,,0.01,Wunderground v.1.15,2013-03-23 21:38:00,
2013-03-23 17:41:00,83.6,73.2,29.78,SSW,192,4.0,7.0,71,0.00,,,0.01,Wunderground v.1.15,2013-03-23 21:41:00,
2013-03-23 17:42:00,83.6,73.2,29.78,SSE,157,7.0,12.0,71,0.00,,,0.01,Wunderground v.1.15,2013-03-23 21:42:00,
2013-03-23 17:43:00,83.5,73.1,29.78,South,176,6.0,12.0,71,0.00,,,0.01,Wunderground v.1.15,2013-03-23 21:43:00,
2013-03-23 17:47:00,83.3,72.9,29.78,SSE,167,4.0,12.0,71,0.00,,,0.01,Wunderground v.1.15,2013-03-23 21:47:00,
2013-03-23 17:48:00,83.3,72.9,29.78,SSE,161,6.0,12.0,71,0.00,,,0.01,Wunderground v.1.15,2013-03-23 21:48:00,
2013-03-23 17:49:00,83.3,72.9,29.78,South,169,5.0,12.0,71,0.00,,,0.01,Wunderground v.1.15,2013-03-23 21:49:00,
2013-03-23 17:52:00,83.3,72.9,29.78,South,169,5.0,8.0,71,0.00,,,0.01,Wunderground v.1.15,2013-03-23 21:52:00,
2013-03-23 17:53:00,83.3,72.9,29.78,South,171,6.0,10.0,71,0.00,,,0.01,Wunderground v.1.15,2013-03-23 21:53:00,
2013-03-23 17:54:00,83.3,72.9,29.78,SSE,153,8.0,10.0,71,0.00,,,0.01,Wunderground v.1.15,2013-03-23 21:54:00,
2013-03-23 17:58:00,83.2,72.8,29.78,South,190,5.0,10.0,71,0.00,,,0.01,Wunderground v.1.15,2013-03-23 21:58:00,
2013-03-23 17:59:00,83.2,72.8,29.78,South,178,6.0,10.0,71,0.00,,,0.01,Wunderground v.1.15,2013-03-23 21:59:00,
2013-03-23 18:00:00,83.2,72.8,29.78,SSE,150,4.0,6.0,71,0.00,,,0.01,Wunderground v.1.15,2013-03-23 22:00:00,
2013-03-23 18:03:00,83.2,72.8,29.78,SSW,207,5.0,9.0,71,0.00,,,0.01,Wunderground v.1.15,2013-03-23 22:03:00,
2013-03-23 18:04:00,83.3,72.9,29.78,SW,217,6.0,9.0,71,0.00,,,0.01,Wunderground v.1.15,2013-03-23 22:04:00,
2013-03-23 18:05:00,83.3,72.9,29.78,SW,231,2.0,9.0,71,0.00,,,0.01,Wunderground v.1.15,2013-03-23 22:05:00,
2013-03-23 18:08:00,83.3,72.5,29.78,South,169,0.0,9.0,70,0.00,,,0.01,Wunderground v.1.15,2013-03-23 22:08:00,
2013-03-23 18:09:00,83.3,72.5,29.78,SE,142,6.0,9.0,70,0.00,,,0.01,Wunderground v.1.15,2013-03-23 22:09:00,
2013-03-23 18:11:00,83.3,72.5,29.78,South,189,7.0,7.0,70,0.00,,,0.01,Wunderground v.1.15,2013-03-23 22:11:00,
2013-03-23 18:14:00,83.4,72.6,29.78,SW,222,3.0,7.0,70,0.00,,,0.01,Wunderground v.1.15,2013-03-23 22:14:00,
2013-03-23 18:15:00,83.4,72.6,29.78,SW,221,1.0,7.0,70,0.00,,,0.01,Wunderground v.1.15,2013-03-23 22:15:00,
2013-03-23 18:16:00,83.5,72.7,29.78,SSW,197,4.0,7.0,70,0.00,,,0.01,Wunderground v.1.15,2013-03-23 22:16:00,
2013-03-23 18:17:00,83.5,72.7,29.78,SSW,198,0.0,7.0,70,0.00,,,0.01,Wunderground v.1.15,2013-03-23 22:17:00,
2013-03-23 18:20:00,83.5,72.3,29.78,SSE,159,6.0,7.0,69,0.00,,,0.01,Wunderground v.1.15,2013-03-23 22:20:00,
2013-03-23 18:22:00,83.5,72.3,29.78,SSE,149,2.0,10.0,69,0.00,,,0.01,Wunderground v.1.15,2013-03-23 22:22:00,
2013-03-23 18:25:00,83.4,72.6,29.78,SE,146,4.0,10.0,70,0.00,,,0.01,Wunderground v.1.15,2013-03-23 22:25:00,
2013-03-23 18:27:00,83.4,72.6,29.78,South,171,0.0,10.0,70,0.00,,,0.01,Wunderground v.1.15,2013-03-23 22:27:00,
2013-03-23 18:28:00,83.4,72.6,29.78,South,171,0.0,10.0,70,0.00,,,0.01,Wunderground v.1.15,2013-03-23 22:28:00,
2013-03-23 18:30:00,83.4,72.6,29.78,SSE,161,6.0,6.0,70,0.00,,,0.01,Wunderground v.1.15,2013-03-23 22:30:00,
2013-03-23 18:32:00,83.4,72.2,29.78,SSW,211,9.0,9.0,69,0.00,,,0.01,Wunderground v.1.15,2013-03-23 22:32:00,
2013-03-23 18:33:00,83.4,71.7,29.78,SSW,209,0.0,9.0,68,0.00,,,0.01,Wunderground v.1.15,2013-03-23 22:33:00,
2013-03-23 18:35:00,83.5,71.4,29.78,SSW,197,0.0,9.0,67,0.00,,,0.01,Wunderground v.1.15,2013-03-23 22:35:00,
2013-03-23 18:37:00,83.6,71.9,29.78,SSW,197,0.0,9.0,68,0.00,,,0.01,Wunderground v.1.15,2013-03-23 22:37:00,
2013-03-23 18:39:00,83.6,71.5,29.78,SSW,209,7.0,9.0,67,0.00,,,0.01,Wunderground v.1.15,2013-03-23 22:39:00,
2013-03-23 18:41:00,83.6,70.6,29.78,SSW,194,2.0,10.0,65,0.00,,,0.01,Wunderground v.1.15,2013-03-23 22:41:00,
2013-03-23 18:42:00,83.6,70.6,29.78,SSW,205,7.0,10.0,65,0.00,,,0.01,Wunderground v.1.15,2013-03-23 22:42:00,
2013-03-23 18:44:00,83.6,70.6,29.78,SSW,196,0.0,10.0,65,0.00,,,0.01,Wunderground v.1.15,2013-03-23 22:44:00,
2013-03-23 18:46:00,83.6,70.6,29.78,South,189,1.0,10.0,65,0.00,,,0.01,Wunderground v.1.15,2013-03-23 22:46:00,
2013-03-23 18:47:00,83.5,70.5,29.78,SSW,192,6.0,10.0,65,0.00,,,0.01,Wunderground v.1.15,2013-03-23 22:47:00,
2013-03-23 18:48:00,83.5,70.0,29.78,SSW,195,0.0,10.0,64,0.00,,,0.01,Wunderground v.1.15,2013-03-23 22:48:00,
2013-03-23 18:49:00,83.5,70.0,29.78,SSW,205,7.0,10.0,64,0.00,,,0.01,Wunderground v.1.15,2013-03-23 22:49:00,
2013-03-23 18:51:00,83.4,70.4,29.78,South,183,5.0,6.0,65,0.00,,,0.01,Wunderground v.1.15,2013-03-23 22:51:00,
2013-03-23 18:52:00,83.4,70.4,29.78,SSW,204,0.0,6.0,65,0.00,,,0.01,Wunderground v.1.15,2013-03-23 22:52:00,
2013-03-23 18:53:00,83.3,69.8,29.78,South,191,3.0,8.0,64,0.00,,,0.01,Wunderground v.1.15,2013-03-23 22:53:00,
2013-03-23 18:54:00,83.3,70.3,29.79,SSW,194,0.0,8.0,65,0.00,,,0.01,Wunderground v.1.15,2013-03-23 22:54:00,
2013-03-23 18:57:00,83.2,70.2,29.78,SSW,200,2.0,8.0,65,0.00,,,0.01,Wunderground v.1.15,2013-03-23 22:57:00,
2013-03-23 18:59:00,83.1,70.1,29.79,SSW,207,5.0,8.0,65,0.00,,,0.01,Wunderground v.1.15,2013-03-23 22:59:00,
2013-03-23 19:02:00,83.0,70.5,29.79,SSW,201,0.0,2.0,66,0.00,,,0.01,Wunderground v.1.15,2013-03-23 23:02:00,
2013-03-23 19:03:00,83.0,70.0,29.79,SSW,202,0.0,3.0,65,0.00,,,0.01,Wunderground v.1.15,2013-03-23 23:03:00,
2013-03-23 19:04:00,83.0,70.0,29.79,SW,218,1.0,4.0,65,0.00,,,0.01,Wunderground v.1.15,2013-03-23 23:04:00,
2013-03-23 19:05:00,82.9,69.9,29.79,SW,218,1.0,4.0,65,0.00,,,0.01,Wunderground v.1.15,2013-03-23 23:05:00,
2013-03-23 19:07:00,82.8,69.8,29.79,South,169,0.0,8.0,65,0.00,,,0.01,Wunderground v.1.15,2013-03-23 23:07:00,
2013-03-23 19:08:00,82.8,69.8,29.79,SSE,166,2.0,8.0,65,0.00,,,0.01,Wunderground v.1.15,2013-03-23 23:08:00,
2013-03-23 19:09:00,82.7,69.7,29.79,South,181,0.0,8.0,65,0.00,,,0.01,Wunderground v.1.15,2013-03-23 23:09:00,
2013-03-23 19:10:00,82.8,69.8,29.79,South,177,5.0,8.0,65,0.00,,,0.01,Wunderground v.1.15,2013-03-23 23:10:00,
2013-03-23 19:13:00,82.7,69.7,29.80,SSW,193,0.0,8.0,65,0.00,,,0.01,Wunderground v.1.15,2013-03-23 23:13:00,
2013-03-23 19:15:00,82.6,69.6,29.80,South,190,0.0,8.0,65,0.00,,,0.01,Wunderground v.1.15,2013-03-23 23:15:00,
2013-03-23 19:17:00,82.5,69.5,29.80,SSW,193,0.0,8.0,65,0.00,,,0.01,Wunderground v.1.15,2013-03-23 23:17:00,
2013-03-23 19:18:00,82.5,69.5,29.80,South,187,0.0,8.0,65,0.00,,,0.01,Wunderground v.1.15,2013-03-23 23:18:00,
2013-03-23 19:19:00,82.4,69.4,29.79,South,187,0.0,8.0,65,0.00,,,0.01,Wunderground v.1.15,2013-03-23 23:19:00,
2013-03-23 19:20:00,82.4,69.9,29.79,South,189,0.0,8.0,66,0.00,,,0.01,Wunderground v.1.15,2013-03-23 23:20:00,
2013-03-23 19:22:00,82.2,69.7,29.80,SSE,165,0.0,6.0,66,0.00,,,0.01,Wunderground v.1.15,2013-03-23 23:22:00,
2013-03-23 19:23:00,82.2,69.7,29.80,SSW,194,5.0,6.0,66,0.00,,,0.01,Wunderground v.1.15,2013-03-23 23:23:00,
2013-03-23 19:24:00,82.1,69.2,29.80,SSW,193,0.0,6.0,65,0.00,,,0.01,Wunderground v.1.15,2013-03-23 23:24:00,
2013-03-23 19:26:00,82.1,69.2,29.80,SSW,193,0.0,6.0,65,0.00,,,0.01,Wunderground v.1.15,2013-03-23 23:26:00,
2013-03-23 19:28:00,82.0,69.5,29.80,SSW,193,0.0,6.0,66,0.00,,,0.01,Wunderground v.1.15,2013-03-23 23:28:00,
2013-03-23 19:29:00,81.9,69.9,29.80,SSW,193,0.0,6.0,67,0.00,,,0.01,Wunderground v.1.15,2013-03-23 23:29:00,
2013-03-23 19:32:00,81.7,69.7,29.80,SSW,194,0.0,1.0,67,0.00,,,0.01,Wunderground v.1.15,2013-03-23 23:32:00,
2013-03-23 19:33:00,81.6,69.1,29.80,SSW,194,0.0,1.0,66,0.00,,,0.01,Wunderground v.1.15,2013-03-23 23:33:00,
2013-03-23 19:35:00,81.6,69.6,29.80,SSW,194,0.0,1.0,67,0.00,,,0.01,Wunderground v.1.15,2013-03-23 23:35:00,
2013-03-23 19:38:00,81.4,68.9,29.80,SSW,194,0.0,2.0,66,0.00,,,0.01,Wunderground v.1.15,2013-03-23 23:38:00,
2013-03-23 19:39:00,81.3,69.3,29.80,SSW,194,0.0,2.0,67,0.00,,,0.01,Wunderground v.1.15,2013-03-23 23:39:00,
2013-03-23 19:40:00,81.2,69.2,29.80,South,190,0.0,0.0,67,0.00,,,0.01,Wunderground v.1.15,2013-03-23 23:40:00,
2013-03-23 19:43:00,81.1,69.5,29.80,South,190,0.0,1.0,68,0.00,,,0.01,Wunderground v.1.15,2013-03-23 23:43:00,
2013-03-23 19:45:00,81.0,69.4,29.80,South,190,0.0,1.0,68,0.00,,,0.01,Wunderground v.1.15,2013-03-23 23:45:00,
2013-03-23 19:47:00,80.9,69.3,29.80,South,190,0.0,1.0,68,0.00,,,0.01,Wunderground v.1.15,2013-03-23 23:47:00,
2013-03-23 19:48:00,80.8,69.2,29.80,South,190,2.0,2.0,68,0.00,,,0.01,Wunderground v.1.15,2013-03-23 23:48:00,
2013-03-23 19:51:00,80.7,69.2,29.80,South,190,0.0,0.0,68,0.00,,,0.01,Wunderground v.1.15,2013-03-23 23:51:00,
2013-03-23 19:52:00,80.7,69.2,29.80,South,190,0.0,0.0,68,0.00,,,0.01,Wunderground v.1.15,2013-03-23 23:52:00,
2013-03-23 19:54:00,80.5,69.0,29.80,South,190,0.0,0.0,68,0.00,,,0.01,Wunderground v.1.15,2013-03-23 23:54:00,
2013-03-23 19:57:00,80.4,68.9,29.81,South,190,0.0,1.0,68,0.00,,,0.01,Wunderground v.1.15,2013-03-23 23:57:00,
2013-03-23 19:59:00,80.3,69.2,29.80,SSW,193,0.0,2.0,69,0.00,,,0.01,Wunderground v.1.15,2013-03-23 23:59:00,
2013-03-23 20:02:00,80.2,69.1,29.81,SSW,193,0.0,0.0,69,0.00,,,0.01,Wunderground v.1.15,2013-03-24 00:02:00,
2013-03-23 20:04:00,80.1,69.0,29.81,SSW,193,0.0,1.0,69,0.00,,,0.01,Wunderground v.1.15,2013-03-24 00:04:00,
2013-03-23 20:07:00,80.0,68.9,29.81,SSW,193,0.0,1.0,69,0.00,,,0.01,Wunderground v.1.15,2013-03-24 00:07:00,
2013-03-23 20:08:00,79.9,69.2,29.81,SSW,193,0.0,1.0,70,0.00,,,0.01,Wunderground v.1.15,2013-03-24 00:08:00,
2013-03-23 20:10:00,79.9,69.2,29.81,SSW,193,0.0,1.0,70,0.00,,,0.01,Wunderground v.1.15,2013-03-24 00:10:00,
2013-03-23 20:12:00,79.7,69.0,29.81,SSW,193,0.0,0.0,70,0.00,,,0.01,Wunderground v.1.15,2013-03-24 00:12:00,
2013-03-23 20:13:00,79.6,69.0,29.81,SSW,193,0.0,0.0,70,0.00,,,0.01,Wunderground v.1.15,2013-03-24 00:13:00,
2013-03-23 20:15:00,79.6,69.0,29.81,SSW,193,0.0,0.0,70,0.00,,,0.01,Wunderground v.1.15,2013-03-24 00:15:00,
2013-03-23 20:17:00,79.5,69.7,29.81,SSW,193,0.0,0.0,72,0.00,,,0.01,Wunderground v.1.15,2013-03-24 00:17:00,
2013-03-23 20:18:00,79.4,70.0,29.81,SSW,193,0.0,0.0,73,0.00,,,0.01,Wunderground v.1.15,2013-03-24 00:18:00,
2013-03-23 20:21:00,79.2,69.8,29.81,SSW,193,0.0,0.0,73,0.00,,,0.01,Wunderground v.1.15,2013-03-24 00:21:00,
2013-03-23 20:23:00,79.2,70.2,29.81,SSW,193,0.0,2.0,74,0.00,,,0.01,Wunderground v.1.15,2013-03-24 00:23:00,
2013-03-23 20:24:00,79.2,70.2,29.81,SSW,193,0.0,2.0,74,0.00,,,0.01,Wunderground v.1.15,2013-03-24 00:24:00,
2013-03-23 20:27:00,79.1,70.9,29.82,SSW,193,0.0,2.0,76,0.00,,,0.01,Wunderground v.1.15,2013-03-24 00:27:00,
2013-03-23 20:28:00,79.1,71.3,29.82,SSW,193,0.0,2.0,77,0.00,,,0.01,Wunderground v.1.15,2013-03-24 00:28:00,
2013-03-23 20:29:00,79.1,71.3,29.82,SSW,193,0.0,2.0,77,0.00,,,0.01,Wunderground v.1.15,2013-03-24 00:29:00,
2013-03-23 20:33:00,78.9,71.5,29.82,SSW,193,0.0,0.0,78,0.00,,,0.01,Wunderground v.1.15,2013-03-24 00:33:00,
2013-03-23 20:34:00,78.8,71.4,29.82,SSW,193,0.0,1.0,78,0.00,,,0.01,Wunderground v.1.15,2013-03-24 00:34:00,
2013-03-23 20:38:00,78.6,71.9,29.82,SSW,193,0.0,1.0,80,0.00,,,0.01,Wunderground v.1.15,2013-03-24 00:38:00,
2013-03-23 20:39:00,78.5,71.8,29.82,SSW,193,0.0,1.0,80,0.00,,,0.01,Wunderground v.1.15,2013-03-24 00:39:00,
2013-03-23 20:43:00,78.3,72.0,29.82,SSW,193,0.0,0.0,81,0.00,,,0.01,Wunderground v.1.15,2013-03-24 00:43:00,
2013-03-23 20:44:00,78.3,72.0,29.82,SSW,193,0.0,0.0,81,0.00,,,0.01,Wunderground v.1.15,2013-03-24 00:44:00,
2013-03-23 20:45:00,78.3,72.0,29.82,SSW,193,0.0,0.0,81,0.00,,,0.01,Wunderground v.1.15,2013-03-24 00:45:00,
2013-03-23 20:49:00,78.1,72.2,29.83,SSW,193,0.0,1.0,82,0.00,,,0.01,Wunderground v.1.15,2013-03-24 00:49:00,
2013-03-23 20:50:00,78.1,72.2,29.83,SSW,193,0.0,1.0,82,0.00,,,0.01,Wunderground v.1.15,2013-03-24 00:50:00,
2013-03-23 20:54:00,77.9,72.3,29.82,SSW,193,1.0,1.0,83,0.00,,,0.01,Wunderground v.1.15,2013-03-24 00:54:00,
2013-03-23 20:55:00,77.8,72.2,29.82,SSW,193,1.0,2.0,83,0.00,,,0.01,Wunderground v.1.15,2013-03-24 00:55:00,
2013-03-23 20:59:00,77.7,72.1,29.82,SSW,193,0.0,2.0,83,0.00,,,0.01,Wunderground v.1.15,2013-03-24 00:59:00,
2013-03-23 21:00:00,77.7,72.1,29.82,SSW,193,0.0,2.0,83,0.00,,,0.01,Wunderground v.1.15,2013-03-24 01:00:00,
2013-03-23 21:05:00,77.5,71.9,29.83,SSW,192,0.0,2.0,83,0.00,,,0.01,Wunderground v.1.15,2013-03-24 01:05:00,
2013-03-23 21:06:00,77.5,72.3,29.83,SSW,192,0.0,2.0,84,0.00,,,0.01,Wunderground v.1.15,2013-03-24 01:06:00,
2013-03-23 21:10:00,77.3,72.1,29.83,SSW,192,0.0,2.0,84,0.00,,,0.01,Wunderground v.1.15,2013-03-24 01:10:00,
2013-03-23 21:11:00,77.3,72.1,29.83,SSW,192,0.0,0.0,84,0.00,,,0.01,Wunderground v.1.15,2013-03-24 01:11:00,
2013-03-23 21:15:00,77.1,71.9,29.83,SSW,192,0.0,0.0,84,0.00,,,0.01,Wunderground v.1.15,2013-03-24 01:15:00,
2013-03-23 21:16:00,77.1,72.2,29.84,SSW,192,0.0,1.0,85,0.00,,,0.01,Wunderground v.1.15,2013-03-24 01:16:00,
2013-03-23 21:17:00,77.1,72.2,29.84,SSW,192,0.0,1.0,85,0.00,,,0.01,Wunderground v.1.15,2013-03-24 01:17:00,
2013-03-23 21:20:00,77.0,72.1,29.84,South,184,4.0,4.0,85,0.00,,,0.01,Wunderground v.1.15,2013-03-24 01:20:00,
2013-03-23 21:21:00,77.0,72.1,29.83,South,184,0.0,4.0,85,0.00,,,0.01,Wunderground v.1.15,2013-03-24 01:21:00,
2013-03-23 21:22:00,77.0,72.1,29.83,South,184,0.0,4.0,85,0.00,,,0.01,Wunderground v.1.15,2013-03-24 01:22:00,
2013-03-23 21:25:00,76.9,72.0,29.84,South,184,0.0,4.0,85,0.00,,,0.01,Wunderground v.1.15,2013-03-24 01:25:00,
2013-03-23 21:26:00,77.0,72.1,29.84,South,184,0.0,4.0,85,0.00,,,0.01,Wunderground v.1.15,2013-03-24 01:26:00,
2013-03-23 21:27:00,76.9,72.0,29.84,South,184,0.0,4.0,85,0.00,,,0.01,Wunderground v.1.15,2013-03-24 01:27:00,
2013-03-23 21:30:00,76.7,71.8,29.84,South,184,0.0,0.0,85,0.00,,,0.01,Wunderground v.1.15,2013-03-24 01:30:00,
2013-03-23 21:31:00,76.7,71.8,29.84,South,184,0.0,0.0,85,0.00,,,0.01,Wunderground v.1.15,2013-03-24 01:31:00,
2013-03-23 21:32:00,76.7,71.8,29.84,South,184,0.0,0.0,85,0.00,,,0.01,Wunderground v.1.15,2013-03-24 01:32:00,
2013-03-23 21:36:00,76.6,72.1,29.84,South,184,0.0,1.0,86,0.00,,,0.01,Wunderground v.1.15,2013-03-24 01:36:00,
2013-03-23 21:37:00,76.6,72.1,29.84,South,184,0.0,1.0,86,0.00,,,0.01,Wunderground v.1.15,2013-03-24 01:37:00,
2013-03-23 21:42:00,76.5,72.0,29.84,South,178,0.0,2.0,86,0.00,,,0.01,Wunderground v.1.15,2013-03-24 01:42:00,
2013-03-23 21:43:00,76.5,72.3,29.84,South,178,0.0,2.0,87,0.00,,,0.01,Wunderground v.1.15,2013-03-24 01:43:00,
2013-03-23 21:47:00,76.5,72.3,29.84,South,178,0.0,2.0,87,0.00,,,0.01,Wunderground v.1.15,2013-03-24 01:47:00,
2013-03-23 21:48:00,76.5,72.3,29.84,South,178,0.0,2.0,87,0.00,,,0.01,Wunderground v.1.15,2013-03-24 01:48:00,
2013-03-23 21:49:00,76.5,72.3,29.84,South,178,0.0,2.0,87,0.00,,,0.01,Wunderground v.1.15,2013-03-24 01:49:00,
2013-03-23 21:52:00,76.4,72.2,29.84,South,178,0.0,3.0,87,0.00,,,0.01,Wunderground v.1.15,2013-03-24 01:52:00,
2013-03-23 21:53:00,76.4,72.2,29.85,South,178,0.0,3.0,87,0.00,,,0.01,Wunderground v.1.15,2013-03-24 01:53:00,
2013-03-23 21:54:00,76.4,72.2,29.85,South,178,0.0,3.0,87,0.00,,,0.01,Wunderground v.1.15,2013-03-24 01:54:00,
2013-03-23 21:57:00,76.4,72.2,29.85,South,178,0.0,3.0,87,0.00,,,0.01,Wunderground v.1.15,2013-03-24 01:57:00,
2013-03-23 21:58:00,76.4,72.2,29.85,South,178,0.0,3.0,87,0.00,,,0.01,Wunderground v.1.15,2013-03-24 01:58:00,
2013-03-23 22:00:00,76.4,72.2,29.85,South,178,0.0,3.0,87,0.00,,,0.01,Wunderground v.1.15,2013-03-24 02:00:00,
2013-03-23 22:02:00,76.4,72.2,29.85,South,178,0.0,0.0,87,0.00,,,0.01,Wunderground v.1.15,2013-03-24 02:02:00,
2013-03-23 22:03:00,76.3,72.5,29.85,South,178,0.0,0.0,88,0.00,,,0.01,Wunderground v.1.15,2013-03-24 02:03:00,
2013-03-23 22:05:00,76.3,72.5,29.85,South,178,0.0,1.0,88,0.00,,,0.01,Wunderground v.1.15,2013-03-24 02:05:00,
2013-03-23 22:08:00,76.3,72.5,29.85,South,178,0.0,1.0,88,0.00,,,0.01,Wunderground v.1.15,2013-03-24 02:08:00,
2013-03-23 22:09:00,76.2,72.4,29.85,South,178,0.0,1.0,88,0.00,,,0.01,Wunderground v.1.15,2013-03-24 02:09:00,
2013-03-23 22:10:00,76.2,72.0,29.85,South,178,0.0,1.0,87,0.00,,,0.01,Wunderground v.1.15,2013-03-24 02:10:00,
2013-03-23 22:13:00,76.2,72.4,29.85,South,178,0.0,1.0,88,0.00,,,0.01,Wunderground v.1.15,2013-03-24 02:13:00,
2013-03-23 22:15:00,76.2,72.4,29.85,South,178,0.0,1.0,88,0.00,,,0.01,Wunderground v.1.15,2013-03-24 02:15:00,
2013-03-23 22:19:00,76.1,72.3,29.85,South,178,0.0,1.0,88,0.00,,,0.01,Wunderground v.1.15,2013-03-24 02:19:00,
2013-03-23 22:20:00,76.1,72.3,29.85,South,178,0.0,1.0,88,0.00,,,0.01,Wunderground v.1.15,2013-03-24 02:20:00,
2013-03-23 22:21:00,76.1,72.3,29.85,South,178,0.0,0.0,88,0.00,,,0.01,Wunderground v.1.15,2013-03-24 02:21:00,
2013-03-23 22:24:00,75.9,72.1,29.85,South,178,0.0,0.0,88,0.00,,,0.01,Wunderground v.1.15,2013-03-24 02:24:00,
2013-03-23 22:25:00,75.8,72.0,29.85,South,178,0.0,0.0,88,0.00,,,0.01,Wunderground v.1.15,2013-03-24 02:25:00,
2013-03-23 22:26:00,75.8,72.0,29.85,South,178,0.0,0.0,88,0.00,,,0.01,Wunderground v.1.15,2013-03-24 02:26:00,
2013-03-23 22:29:00,75.7,72.2,29.85,South,178,0.0,0.0,89,0.00,,,0.01,Wunderground v.1.15,2013-03-24 02:29:00,
2013-03-23 22:30:00,75.7,72.2,29.85,South,178,0.0,0.0,89,0.00,,,0.01,Wunderground v.1.15,2013-03-24 02:30:00,
2013-03-23 22:32:00,75.6,72.1,29.85,South,178,0.0,0.0,89,0.00,,,0.01,Wunderground v.1.15,2013-03-24 02:32:00,
2013-03-23 22:34:00,75.5,72.0,29.85,South,178,0.0,0.0,89,0.00,,,0.01,Wunderground v.1.15,2013-03-24 02:34:00,
2013-03-23 22:35:00,75.5,72.0,29.85,South,178,0.0,0.0,89,0.00,,,0.01,Wunderground v.1.15,2013-03-24 02:35:00,
2013-03-23 22:37:00,75.5,72.0,29.85,South,178,0.0,0.0,89,0.00,,,0.01,Wunderground v.1.15,2013-03-24 02:37:00,
2013-03-23 22:40:00,75.4,71.9,29.85,South,178,0.0,1.0,89,0.00,,,0.01,Wunderground v.1.15,2013-03-24 02:40:00,
2013-03-23 22:42:00,75.4,71.9,29.85,South,178,0.0,0.0,89,0.00,,,0.01,Wunderground v.1.15,2013-03-24 02:42:00,
2013-03-23 22:45:00,75.4,71.9,29.85,South,178,0.0,0.0,89,0.00,,,0.01,Wunderground v.1.15,2013-03-24 02:45:00,
2013-03-23 22:46:00,75.4,71.9,29.85,South,178,0.0,0.0,89,0.00,,,0.01,Wunderground v.1.15,2013-03-24 02:46:00,
2013-03-23 22:48:00,75.4,72.3,29.85,South,178,0.0,0.0,90,0.00,,,0.01,Wunderground v.1.15,2013-03-24 02:48:00,
2013-03-23 22:51:00,75.3,72.2,29.85,South,178,0.0,0.0,90,0.00,,,0.01,Wunderground v.1.15,2013-03-24 02:51:00,
2013-03-23 22:52:00,75.3,72.2,29.85,South,178,0.0,0.0,90,0.00,,,0.01,Wunderground v.1.15,2013-03-24 02:52:00,
2013-03-23 22:53:00,75.2,72.1,29.86,South,178,0.0,0.0,90,0.00,,,0.01,Wunderground v.1.15,2013-03-24 02:53:00,
2013-03-23 22:56:00,75.2,72.1,29.86,South,178,0.0,0.0,90,0.00,,,0.01,Wunderground v.1.15,2013-03-24 02:56:00,
2013-03-23 22:57:00,75.1,72.0,29.86,South,178,0.0,0.0,90,0.00,,,0.01,Wunderground v.1.15,2013-03-24 02:57:00,
2013-03-23 22:58:00,75.1,72.0,29.86,South,178,0.0,0.0,90,0.00,,,0.01,Wunderground v.1.15,2013-03-24 02:58:00,
2013-03-23 23:02:00,74.9,71.8,29.86,South,178,0.0,0.0,90,0.00,,,0.01,Wunderground v.1.15,2013-03-24 03:02:00,
2013-03-23 23:03:00,74.9,71.8,29.86,South,178,0.0,0.0,90,0.00,,,0.01,Wunderground v.1.15,2013-03-24 03:03:00,
2013-03-23 23:04:00,74.8,71.7,29.86,South,178,0.0,0.0,90,0.00,,,0.01,Wunderground v.1.15,2013-03-24 03:04:00,
2013-03-23 23:07:00,74.6,71.5,29.86,South,178,0.0,0.0,90,0.00,,,0.01,Wunderground v.1.15,2013-03-24 03:07:00,
2013-03-23 23:08:00,74.5,71.4,29.86,South,178,0.0,0.0,90,0.00,,,0.01,Wunderground v.1.15,2013-03-24 03:08:00,
2013-03-23 23:09:00,74.4,71.3,29.86,South,178,0.0,0.0,90,0.00,,,0.01,Wunderground v.1.15,2013-03-24 03:09:00,
2013-03-23 23:13:00,74.2,71.4,29.86,South,178,0.0,0.0,91,0.00,,,0.01,Wunderground v.1.15,2013-03-24 03:13:00,
2013-03-23 23:14:00,74.1,71.3,29.86,South,178,0.0,0.0,91,0.00,,,0.01,Wunderground v.1.15,2013-03-24 03:14:00,
2013-03-23 23:18:00,73.8,71.0,29.86,South,178,0.0,0.0,91,0.00,,,0.01,Wunderground v.1.15,2013-03-24 03:18:00,
2013-03-23 23:19:00,73.7,70.9,29.86,South,178,0.0,0.0,91,0.00,,,0.01,Wunderground v.1.15,2013-03-24 03:19:00,
2013-03-23 23:23:00,73.4,70.6,29.86,South,178,0.0,0.0,91,0.00,,,0.01,Wunderground v.1.15,2013-03-24 03:23:00,
2013-03-23 23:24:00,73.3,70.5,29.86,South,178,0.0,0.0,91,0.00,,,0.01,Wunderground v.1.15,2013-03-24 03:24:00,
2013-03-23 23:25:00,73.3,70.5,29.86,South,178,0.0,0.0,91,0.00,,,0.01,Wunderground v.1.15,2013-03-24 03:25:00,
2013-03-23 23:28:00,73.2,70.7,29.86,South,178,0.0,0.0,92,0.00,,,0.01,Wunderground v.1.15,2013-03-24 03:28:00,
2013-03-23 23:29:00,73.2,70.7,29.86,South,178,0.0,0.0,92,0.00,,,0.01,Wunderground v.1.15,2013-03-24 03:29:00,
2013-03-23 23:30:00,73.1,70.6,29.86,South,178,0.0,0.0,92,0.00,,,0.01,Wunderground v.1.15,2013-03-24 03:30:00,
2013-03-23 23:33:00,73.0,70.5,29.86,South,178,0.0,0.0,92,0.00,,,0.01,Wunderground v.1.15,2013-03-24 03:33:00,
2013-03-23 23:34:00,73.0,70.5,29.86,South,178,0.0,0.0,92,0.00,,,0.01,Wunderground v.1.15,2013-03-24 03:34:00,
2013-03-23 23:35:00,73.0,70.5,29.86,South,178,0.0,0.0,92,0.00,,,0.01,Wunderground v.1.15,2013-03-24 03:35:00,
2013-03-23 23:36:00,73.0,70.5,29.86,South,178,0.0,0.0,92,0.00,,,0.01,Wunderground v.1.15,2013-03-24 03:36:00,
2013-03-23 23:38:00,73.0,70.9,29.86,South,178,0.0,0.0,93,0.00,,,0.01,Wunderground v.1.15,2013-03-24 03:38:00,
2013-03-23 23:40:00,73.0,70.9,29.85,South,178,0.0,0.0,93,0.00,,,0.01,Wunderground v.1.15,2013-03-24 03:40:00,
2013-03-23 23:42:00,72.9,70.8,29.86,South,178,0.0,0.0,93,0.00,,,0.01,Wunderground v.1.15,2013-03-24 03:42:00,
2013-03-23 23:43:00,72.9,70.8,29.85,South,178,0.0,0.0,93,0.00,,,0.01,Wunderground v.1.15,2013-03-24 03:43:00,
2013-03-23 23:45:00,72.8,70.7,29.85,South,178,0.0,0.0,93,0.00,,,0.01,Wunderground v.1.15,2013-03-24 03:45:00,
2013-03-23 23:47:00,72.8,70.7,29.85,South,178,0.0,0.0,93,0.00,,,0.01,Wunderground v.1.15,2013-03-24 03:47:00,
2013-03-23 23:49:00,72.7,70.6,29.85,South,178,0.0,0.0,93,0.00,,,0.01,Wunderground v.1.15,2013-03-24 03:49:00,
2013-03-23 23:50:00,72.6,70.5,29.86,South,178,0.0,0.0,93,0.00,,,0.01,Wunderground v.1.15,2013-03-24 03:50:00,
2013-03-23 23:52:00,72.6,70.5,29.85,South,178,0.0,0.0,93,0.00,,,0.01,Wunderground v.1.15,2013-03-24 03:52:00,
2013-03-23 23:54:00,72.5,70.4,29.85,South,178,0.0,0.0,93,0.00,,,0.01,Wunderground v.1.15,2013-03-24 03:54:00,
2013-03-23 23:55:00,72.5,70.4,29.85,South,178,0.0,0.0,93,0.00,,,0.01,Wunderground v.1.15,2013-03-24 03:55:00,
2013-03-23 23:56:00,72.5,70.4,29.85,South,178,0.0,0.0,93,0.00,,,0.01,Wunderground v.1.15,2013-03-24 03:56:00,
2013-03-23 23:57:00,72.4,70.3,29.85,South,178,0.0,0.0,93,0.00,,,0.01,Wunderground v.1.15,2013-03-24 03:57:00,
2013-03-23 23:59:00,72.4,70.3,29.85,South,178,0.0,0.0,93,0.00,,,0.01,Wunderground v.1.15,2013-03-24 03:59:00,